Time,TemperatureF,DewpointF,PressureIn,WindDirection,WindDirectionDegrees,WindSpeedMPH,WindSpeedGustMPH,Humidity,HourlyPrecipIn,Conditions,Clouds,dailyrainin,SoftwareType,DateUTC
2013-01-30 00:02:00,43.8,38.7,30.05,NNW,338,0.0,0.0,82,0.00,,,0.00,VWS V14.00,2013-01-29 22:02:00,
2013-01-30 00:04:00,43.7,38.6,30.05,NNW,338,0.0,0.0,82,0.00,,,0.00,VWS V14.00,2013-01-29 22:04:00,
2013-01-30 00:07:00,43.7,38.6,30.05,NNW,338,1.1,1.1,82,0.00,,,0.00,VWS V14.00,2013-01-29 22:07:00,
2013-01-30 00:09:00,43.7,38.6,30.05,NW,315,1.3,1.3,82,0.00,,,0.00,VWS V14.00,2013-01-29 22:09:00,
2013-01-30 00:12:00,43.7,38.6,30.05,WNW,292,0.0,1.3,82,0.00,,,0.00,VWS V14.00,2013-01-29 22:12:00,
2013-01-30 00:14:00,43.7,38.6,30.05,WNW,292,0.0,1.3,82,0.00,,,0.00,VWS V14.00,2013-01-29 22:14:00,
2013-01-30 00:17:00,43.7,38.6,30.05,WSW,248,0.0,0.0,82,0.00,,,0.00,VWS V14.00,2013-01-29 22:17:00,
2013-01-30 00:19:00,43.7,38.6,30.05,WSW,248,0.0,0.0,82,0.00,,,0.00,VWS V14.00,2013-01-29 22:19:00,
2013-01-30 00:22:00,43.7,38.6,30.05,NNE,22,0.0,0.0,82,0.00,,,0.00,VWS V14.00,2013-01-29 22:22:00,
2013-01-30 00:24:00,43.7,38.6,30.05,South,180,1.1,1.1,82,0.00,,,0.00,VWS V14.00,2013-01-29 22:24:00,
2013-01-30 00:27:00,43.7,38.6,30.04,SW,225,0.0,1.1,82,0.00,,,0.00,VWS V14.00,2013-01-29 22:27:00,
2013-01-30 00:29:00,43.7,38.6,30.04,North,0,0.0,1.1,82,0.00,,,0.00,VWS V14.00,2013-01-29 22:29:00,
2013-01-30 00:32:00,43.7,38.6,30.05,NNE,22,0.6,0.6,82,0.00,,,0.00,VWS V14.00,2013-01-29 22:32:00,
2013-01-30 00:33:00,43.7,38.6,30.05,NNE,22,0.6,0.6,82,0.00,,,0.00,VWS V14.00,2013-01-29 22:33:00,
2013-01-30 00:34:00,43.5,38.4,30.04,NNE,22,0.0,0.6,82,0.00,,,0.00,VWS V14.00,2013-01-29 22:34:00,
2013-01-30 00:37:00,43.5,38.4,30.04,East,90,0.0,0.0,82,0.00,,,0.00,VWS V14.00,2013-01-29 22:37:00,
2013-01-30 00:38:00,43.5,38.4,30.04,East,90,0.0,0.0,82,0.00,,,0.00,VWS V14.00,2013-01-29 22:38:00,
2013-01-30 00:39:00,43.5,38.4,30.05,NNE,22,0.0,0.0,82,0.00,,,0.00,VWS V14.00,2013-01-29 22:39:00,
2013-01-30 00:42:00,43.5,38.4,30.05,NNE,22,0.0,0.0,82,0.00,,,0.00,VWS V14.00,2013-01-29 22:42:00,
2013-01-30 00:43:00,43.5,38.4,30.05,NNE,22,0.0,0.0,82,0.00,,,0.00,VWS V14.00,2013-01-29 22:43:00,
2013-01-30 00:44:00,43.5,38.1,30.05,SW,225,0.8,0.8,81,0.00,,,0.00,VWS V14.00,2013-01-29 22:44:00,
2013-01-30 00:47:00,43.5,38.1,30.05,WSW,248,0.8,0.8,81,0.00,,,0.00,VWS V14.00,2013-01-29 22:47:00,
2013-01-30 00:48:00,43.5,38.1,30.05,WSW,248,0.8,0.8,81,0.00,,,0.00,VWS V14.00,2013-01-29 22:48:00,
2013-01-30 00:49:00,43.5,38.1,30.05,WSW,248,0.0,0.8,81,0.00,,,0.00,VWS V14.00,2013-01-29 22:49:00,
2013-01-30 00:52:00,43.5,38.1,30.05,West,270,0.0,0.0,81,0.00,,,0.00,VWS V14.00,2013-01-29 22:52:00,
2013-01-30 00:53:00,43.5,38.1,30.05,West,270,0.0,0.0,81,0.00,,,0.00,VWS V14.00,2013-01-29 22:53:00,
2013-01-30 00:54:00,43.3,37.9,30.05,West,270,0.8,0.8,81,0.00,,,0.00,VWS V14.00,2013-01-29 22:54:00,
2013-01-30 00:57:00,43.3,37.9,30.05,WSW,248,1.3,1.3,81,0.00,,,0.00,VWS V14.00,2013-01-29 22:57:00,
2013-01-30 00:58:00,43.3,37.9,30.05,WSW,248,1.3,1.3,81,0.00,,,0.00,VWS V14.00,2013-01-29 22:58:00,
2013-01-30 00:59:00,43.3,37.9,30.05,West,270,0.0,1.3,81,0.00,,,0.00,VWS V14.00,2013-01-29 22:59:00,
2013-01-30 01:02:00,43.3,37.9,30.05,NNE,22,0.0,0.0,81,0.00,,,0.00,VWS V14.00,2013-01-29 23:02:00,
2013-01-30 01:03:00,43.3,37.9,30.05,NNE,22,0.0,0.0,81,0.00,,,0.00,VWS V14.00,2013-01-29 23:03:00,
2013-01-30 01:04:00,43.3,37.9,30.05,NNW,338,0.0,0.0,81,0.00,,,0.00,VWS V14.00,2013-01-29 23:04:00,
2013-01-30 01:07:00,43.1,37.7,30.04,NNW,338,0.0,0.0,81,0.00,,,0.00,VWS V14.00,2013-01-29 23:07:00,
2013-01-30 01:08:00,43.1,37.7,30.04,NNW,338,0.0,0.0,81,0.00,,,0.00,VWS V14.00,2013-01-29 23:08:00,
2013-01-30 01:09:00,43.1,37.7,30.04,WSW,248,2.0,2.0,81,0.00,,,0.00,VWS V14.00,2013-01-29 23:09:00,
2013-01-30 01:12:00,43.1,37.7,30.04,West,270,0.0,2.0,81,0.00,,,0.00,VWS V14.00,2013-01-29 23:12:00,
2013-01-30 01:13:00,43.1,37.7,30.04,West,270,0.0,2.0,81,0.00,,,0.00,VWS V14.00,2013-01-29 23:13:00,
2013-01-30 01:14:00,43.1,37.7,30.04,North,0,0.0,2.0,81,0.00,,,0.00,VWS V14.00,2013-01-29 23:14:00,
2013-01-30 01:18:00,42.9,37.5,30.04,South,180,0.0,0.0,81,0.00,,,0.00,VWS V14.00,2013-01-29 23:18:00,
2013-01-30 01:19:00,42.9,37.5,30.04,ENE,68,1.1,1.1,81,0.00,,,0.00,VWS V14.00,2013-01-29 23:19:00,
2013-01-30 01:23:00,42.9,37.5,30.04,WSW,248,0.0,0.0,81,0.00,,,0.00,VWS V14.00,2013-01-29 23:23:00,
2013-01-30 01:24:00,42.9,37.8,30.04,SE,135,0.0,0.0,82,0.00,,,0.00,VWS V14.00,2013-01-29 23:24:00,
2013-01-30 01:28:00,42.9,37.8,30.03,SE,135,0.0,0.0,82,0.00,,,0.00,VWS V14.00,2013-01-29 23:28:00,
2013-01-30 01:29:00,42.9,37.8,30.03,WNW,292,2.2,2.2,82,0.00,,,0.00,VWS V14.00,2013-01-29 23:29:00,
2013-01-30 01:33:00,42.8,37.7,30.03,West,270,0.0,2.2,82,0.00,,,0.00,VWS V14.00,2013-01-29 23:33:00,
2013-01-30 01:34:00,42.6,37.5,30.03,WSW,248,0.0,2.2,82,0.00,,,0.00,VWS V14.00,2013-01-29 23:34:00,
2013-01-30 01:38:00,42.6,37.5,30.04,WNW,292,0.0,2.9,82,0.00,,,0.00,VWS V14.00,2013-01-29 23:38:00,
2013-01-30 01:40:00,42.6,37.5,30.04,NNW,338,2.2,2.9,82,0.00,,,0.00,VWS V14.00,2013-01-29 23:40:00,
2013-01-30 01:43:00,42.6,37.5,30.04,NW,315,0.8,2.2,82,0.00,,,0.00,VWS V14.00,2013-01-29 23:43:00,
2013-01-30 01:45:00,42.6,37.5,30.04,NNW,338,0.0,2.2,82,0.00,,,0.00,VWS V14.00,2013-01-29 23:45:00,
2013-01-30 01:48:00,42.6,37.5,30.04,NNW,338,0.0,0.0,82,0.00,,,0.00,VWS V14.00,2013-01-29 23:48:00,
2013-01-30 01:49:00,42.6,37.5,30.04,NNW,338,0.0,0.0,82,0.00,,,0.00,VWS V14.00,2013-01-29 23:49:00,
2013-01-30 01:50:00,42.6,37.5,30.04,NNW,338,0.0,0.0,82,0.00,,,0.00,VWS V14.00,2013-01-29 23:50:00,
2013-01-30 01:53:00,42.4,37.3,30.04,North,0,0.6,0.6,82,0.00,,,0.00,VWS V14.00,2013-01-29 23:53:00,
2013-01-30 01:54:00,42.4,37.3,30.04,North,0,0.6,0.6,82,0.00,,,0.00,VWS V14.00,2013-01-29 23:54:00,
2013-01-30 01:55:00,42.4,37.3,30.04,NNE,22,0.0,0.6,82,0.00,,,0.00,VWS V14.00,2013-01-29 23:55:00,
2013-01-30 01:58:00,42.4,37.3,30.04,North,0,0.0,0.0,82,0.00,,,0.00,VWS V14.00,2013-01-29 23:58:00,
2013-01-30 01:59:00,42.4,37.3,30.04,North,0,0.0,0.0,82,0.00,,,0.00,VWS V14.00,2013-01-29 23:59:00,
2013-01-30 02:00:00,42.4,37.3,30.04,West,270,0.0,0.0,82,0.00,,,0.00,VWS V14.00,2013-01-30 00:00:00,
2013-01-30 02:03:00,42.4,37.3,30.04,West,270,0.0,0.0,82,0.00,,,0.00,VWS V14.00,2013-01-30 00:03:00,
2013-01-30 02:04:00,42.4,37.3,30.04,West,270,0.0,0.0,82,0.00,,,0.00,VWS V14.00,2013-01-30 00:04:00,
2013-01-30 02:05:00,42.4,37.3,30.04,SSW,202,0.0,0.0,82,0.00,,,0.00,VWS V14.00,2013-01-30 00:05:00,
2013-01-30 02:08:00,42.4,37.3,30.04,West,270,0.0,0.0,82,0.00,,,0.00,VWS V14.00,2013-01-30 00:08:00,
2013-01-30 02:09:00,42.4,37.3,30.04,West,270,0.0,0.0,82,0.00,,,0.00,VWS V14.00,2013-01-30 00:09:00,
2013-01-30 02:10:00,42.4,37.3,30.04,NNW,338,0.0,0.0,82,0.00,,,0.00,VWS V14.00,2013-01-30 00:10:00,
2013-01-30 02:13:00,42.4,37.3,30.04,NNW,338,0.0,0.0,82,0.00,,,0.00,VWS V14.00,2013-01-30 00:13:00,
2013-01-30 02:14:00,42.4,37.3,30.04,NNW,338,0.0,0.0,82,0.00,,,0.00,VWS V14.00,2013-01-30 00:14:00,
2013-01-30 02:15:00,42.4,37.3,30.04,NNE,22,0.0,0.0,82,0.00,,,0.00,VWS V14.00,2013-01-30 00:15:00,
2013-01-30 02:19:00,42.4,37.3,30.04,West,270,1.3,1.3,82,0.00,,,0.00,VWS V14.00,2013-01-30 00:19:00,
2013-01-30 02:20:00,42.4,37.3,30.04,NW,315,2.2,2.2,82,0.00,,,0.00,VWS V14.00,2013-01-30 00:20:00,
2013-01-30 02:24:00,42.4,37.3,30.04,NE,45,0.0,2.2,82,0.00,,,0.00,VWS V14.00,2013-01-30 00:24:00,
2013-01-30 02:25:00,42.4,37.3,30.03,North,0,0.0,0.0,82,0.00,,,0.00,VWS V14.00,2013-01-30 00:25:00,
2013-01-30 02:29:00,42.4,37.3,30.03,NW,315,0.0,0.0,82,0.00,,,0.00,VWS V14.00,2013-01-30 00:29:00,
2013-01-30 02:31:00,42.4,37.3,30.03,WNW,292,0.0,0.0,82,0.00,,,0.00,VWS V14.00,2013-01-30 00:31:00,
2013-01-30 02:34:00,42.4,37.3,30.04,WNW,292,1.1,1.1,82,0.00,,,0.00,VWS V14.00,2013-01-30 00:34:00,
2013-01-30 02:36:00,42.6,37.5,30.03,SSW,202,1.7,1.7,82,0.00,,,0.00,VWS V14.00,2013-01-30 00:36:00,
2013-01-30 02:39:00,42.6,37.5,30.03,South,180,0.0,1.7,82,0.00,,,0.00,VWS V14.00,2013-01-30 00:39:00,
2013-01-30 02:41:00,42.6,37.5,30.03,South,180,0.0,0.0,82,0.00,,,0.00,VWS V14.00,2013-01-30 00:41:00,
2013-01-30 02:44:00,42.6,37.5,30.03,NNE,22,0.0,1.5,82,0.00,,,0.00,VWS V14.00,2013-01-30 00:44:00,
2013-01-30 02:46:00,42.6,37.5,30.03,NNE,22,0.0,0.0,82,0.00,,,0.00,VWS V14.00,2013-01-30 00:46:00,
2013-01-30 02:49:00,42.6,37.5,30.02,East,90,0.0,0.0,82,0.00,,,0.00,VWS V14.00,2013-01-30 00:49:00,
2013-01-30 02:51:00,42.6,37.5,30.03,ESE,112,1.5,1.5,82,0.00,,,0.00,VWS V14.00,2013-01-30 00:51:00,
2013-01-30 02:54:00,42.6,37.5,30.02,WNW,292,1.1,2.2,82,0.00,,,0.00,VWS V14.00,2013-01-30 00:54:00,
2013-01-30 02:55:00,42.6,37.5,30.02,WNW,292,1.1,2.2,82,0.00,,,0.00,VWS V14.00,2013-01-30 00:55:00,
2013-01-30 02:56:00,42.6,37.5,30.02,WNW,292,1.1,1.1,82,0.00,,,0.00,VWS V14.00,2013-01-30 00:56:00,
2013-01-30 02:59:00,42.6,37.5,30.02,East,90,0.0,1.1,82,0.00,,,0.00,VWS V14.00,2013-01-30 00:59:00,
2013-01-30 03:00:00,42.6,37.5,30.02,East,90,0.0,1.1,82,0.00,,,0.00,VWS V14.00,2013-01-30 01:00:00,
2013-01-30 03:01:00,42.6,37.5,30.02,East,90,0.0,0.0,82,0.00,,,0.00,VWS V14.00,2013-01-30 01:01:00,
2013-01-30 03:04:00,42.6,37.2,30.02,NNE,22,0.0,0.0,81,0.00,,,0.00,VWS V14.00,2013-01-30 01:04:00,
2013-01-30 03:05:00,42.6,37.2,30.02,NNE,22,0.0,0.0,81,0.00,,,0.00,VWS V14.00,2013-01-30 01:05:00,
2013-01-30 03:06:00,42.6,37.2,30.03,WSW,248,2.0,2.0,81,0.00,,,0.00,VWS V14.00,2013-01-30 01:06:00,
2013-01-30 03:09:00,42.6,37.2,30.02,SSW,202,0.0,2.0,81,0.00,,,0.00,VWS V14.00,2013-01-30 01:09:00,
2013-01-30 03:10:00,42.6,37.2,30.02,SSW,202,0.0,2.0,81,0.00,,,0.00,VWS V14.00,2013-01-30 01:10:00,
2013-01-30 03:11:00,42.6,37.2,30.02,WNW,292,0.0,0.0,81,0.00,,,0.00,VWS V14.00,2013-01-30 01:11:00,
2013-01-30 03:14:00,42.6,37.2,30.02,WSW,248,0.0,0.0,81,0.00,,,0.00,VWS V14.00,2013-01-30 01:14:00,
2013-01-30 03:15:00,42.6,37.2,30.02,WSW,248,0.0,0.0,81,0.00,,,0.00,VWS V14.00,2013-01-30 01:15:00,
2013-01-30 03:16:00,42.6,37.2,30.02,WSW,248,0.0,0.0,81,0.00,,,0.00,VWS V14.00,2013-01-30 01:16:00,
2013-01-30 03:19:00,42.6,37.2,30.02,South,180,0.0,0.0,81,0.00,,,0.00,VWS V14.00,2013-01-30 01:19:00,
2013-01-30 03:20:00,42.6,37.2,30.02,South,180,0.0,0.0,81,0.00,,,0.00,VWS V14.00,2013-01-30 01:20:00,
2013-01-30 03:21:00,42.6,37.2,30.02,South,180,0.0,0.0,81,0.00,,,0.00,VWS V14.00,2013-01-30 01:21:00,
2013-01-30 03:24:00,42.6,37.2,30.02,WNW,292,0.0,0.0,81,0.00,,,0.00,VWS V14.00,2013-01-30 01:24:00,
2013-01-30 03:25:00,42.6,37.2,30.02,WNW,292,0.0,0.0,81,0.00,,,0.00,VWS V14.00,2013-01-30 01:25:00,
2013-01-30 03:26:00,42.6,37.2,30.02,WNW,292,0.0,0.0,81,0.00,,,0.00,VWS V14.00,2013-01-30 01:26:00,
2013-01-30 03:30:00,42.6,37.2,30.02,North,0,0.0,0.0,81,0.00,,,0.00,VWS V14.00,2013-01-30 01:30:00,
2013-01-30 03:31:00,42.6,37.2,30.02,West,270,1.3,1.3,81,0.00,,,0.00,VWS V14.00,2013-01-30 01:31:00,
2013-01-30 03:35:00,42.6,37.2,30.02,SSW,202,0.8,1.3,81,0.00,,,0.00,VWS V14.00,2013-01-30 01:35:00,
2013-01-30 03:36:00,42.6,37.2,30.02,SE,135,0.0,0.0,81,0.00,,,0.00,VWS V14.00,2013-01-30 01:36:00,
2013-01-30 03:40:00,42.6,37.2,30.02,NNW,338,1.1,1.1,81,0.00,,,0.00,VWS V14.00,2013-01-30 01:40:00,
2013-01-30 03:41:00,42.6,37.2,30.02,NW,315,0.0,1.1,81,0.00,,,0.00,VWS V14.00,2013-01-30 01:41:00,
2013-01-30 03:45:00,42.6,37.2,30.02,NW,315,0.0,1.1,81,0.00,,,0.00,VWS V14.00,2013-01-30 01:45:00,
2013-01-30 03:46:00,42.4,37.0,30.02,NW,315,0.0,0.0,81,0.00,,,0.00,VWS V14.00,2013-01-30 01:46:00,
2013-01-30 03:50:00,42.4,37.0,30.02,NW,315,0.0,0.0,81,0.00,,,0.00,VWS V14.00,2013-01-30 01:50:00,
2013-01-30 03:51:00,42.4,37.0,30.02,North,0,0.0,0.0,81,0.00,,,0.00,VWS V14.00,2013-01-30 01:51:00,
2013-01-30 03:55:00,42.4,37.0,30.02,SE,135,0.0,0.0,81,0.00,,,0.00,VWS V14.00,2013-01-30 01:55:00,
2013-01-30 03:57:00,42.4,37.0,30.02,WNW,292,0.0,0.0,81,0.00,,,0.00,VWS V14.00,2013-01-30 01:57:00,
2013-01-30 04:00:00,42.4,37.0,30.02,WNW,292,0.0,0.0,81,0.00,,,0.00,VWS V14.00,2013-01-30 02:00:00,
2013-01-30 04:02:00,42.4,37.0,30.02,NW,315,0.0,0.0,81,0.00,,,0.00,VWS V14.00,2013-01-30 02:02:00,
2013-01-30 04:05:00,42.0,36.6,30.02,NNW,338,0.0,0.0,81,0.00,,,0.00,VWS V14.00,2013-01-30 02:05:00,
2013-01-30 04:07:00,42.0,36.6,30.02,NNW,338,0.0,0.0,81,0.00,,,0.00,VWS V14.00,2013-01-30 02:07:00,
2013-01-30 04:10:00,42.0,36.6,30.02,North,0,0.0,0.0,81,0.00,,,0.00,VWS V14.00,2013-01-30 02:10:00,
2013-01-30 04:12:00,42.0,36.6,30.02,North,0,0.0,0.0,81,0.00,,,0.00,VWS V14.00,2013-01-30 02:12:00,
2013-01-30 04:15:00,42.0,36.6,30.02,North,0,0.0,0.0,81,0.00,,,0.00,VWS V14.00,2013-01-30 02:15:00,
2013-01-30 04:17:00,42.0,36.6,30.02,North,0,0.0,0.0,81,0.00,,,0.00,VWS V14.00,2013-01-30 02:17:00,
2013-01-30 04:20:00,42.0,36.6,30.02,East,90,0.0,0.0,81,0.00,,,0.00,VWS V14.00,2013-01-30 02:20:00,
2013-01-30 04:21:00,42.0,36.6,30.02,East,90,0.0,0.0,81,0.00,,,0.00,VWS V14.00,2013-01-30 02:21:00,
2013-01-30 04:22:00,42.0,36.6,30.02,East,90,0.0,0.0,81,0.00,,,0.00,VWS V14.00,2013-01-30 02:22:00,
2013-01-30 04:25:00,42.0,36.6,30.02,North,0,0.0,0.0,81,0.00,,,0.00,VWS V14.00,2013-01-30 02:25:00,
2013-01-30 04:26:00,42.0,36.6,30.02,North,0,0.0,0.0,81,0.00,,,0.00,VWS V14.00,2013-01-30 02:26:00,
2013-01-30 04:27:00,42.0,36.6,30.02,WSW,248,0.8,0.8,81,0.00,,,0.00,VWS V14.00,2013-01-30 02:27:00,
2013-01-30 04:30:00,41.9,36.5,30.02,WNW,292,1.5,1.5,81,0.00,,,0.00,VWS V14.00,2013-01-30 02:30:00,
2013-01-30 04:31:00,41.9,36.5,30.02,WNW,292,1.5,1.5,81,0.00,,,0.00,VWS V14.00,2013-01-30 02:31:00,
2013-01-30 04:32:00,41.9,36.5,30.02,South,180,0.0,1.5,81,0.00,,,0.00,VWS V14.00,2013-01-30 02:32:00,
2013-01-30 04:35:00,41.9,36.5,30.02,NNW,338,3.1,3.1,81,0.00,,,0.00,VWS V14.00,2013-01-30 02:35:00,
2013-01-30 04:36:00,41.9,36.5,30.02,NNW,338,3.1,3.1,81,0.00,,,0.00,VWS V14.00,2013-01-30 02:36:00,
2013-01-30 04:37:00,41.9,36.5,30.02,NNW,338,3.1,3.1,81,0.00,,,0.00,VWS V14.00,2013-01-30 02:37:00,
2013-01-30 04:40:00,41.9,36.5,30.02,ESE,112,0.6,0.6,81,0.00,,,0.00,VWS V14.00,2013-01-30 02:40:00,
2013-01-30 04:41:00,41.9,36.5,30.02,ESE,112,0.6,0.6,81,0.00,,,0.00,VWS V14.00,2013-01-30 02:41:00,
2013-01-30 04:42:00,41.9,36.5,30.02,ESE,112,0.0,0.6,81,0.00,,,0.00,VWS V14.00,2013-01-30 02:42:00,
2013-01-30 04:45:00,41.7,36.3,30.02,ESE,112,0.0,0.0,81,0.00,,,0.00,VWS V14.00,2013-01-30 02:45:00,
2013-01-30 04:46:00,41.7,36.3,30.02,ESE,112,0.0,0.0,81,0.00,,,0.00,VWS V14.00,2013-01-30 02:46:00,
2013-01-30 04:47:00,41.7,36.3,30.02,NE,45,2.0,2.0,81,0.00,,,0.00,VWS V14.00,2013-01-30 02:47:00,
2013-01-30 04:50:00,41.7,36.3,30.02,East,90,0.0,0.0,81,0.00,,,0.00,VWS V14.00,2013-01-30 02:50:00,
2013-01-30 04:51:00,41.7,36.3,30.02,East,90,0.0,0.0,81,0.00,,,0.00,VWS V14.00,2013-01-30 02:51:00,
2013-01-30 04:52:00,41.7,36.3,30.02,East,90,0.0,0.0,81,0.00,,,0.00,VWS V14.00,2013-01-30 02:52:00,
2013-01-30 04:56:00,41.7,36.3,30.02,NNW,338,0.0,0.0,81,0.00,,,0.00,VWS V14.00,2013-01-30 02:56:00,
2013-01-30 04:57:00,41.5,36.1,30.02,NE,45,1.3,1.3,81,0.00,,,0.00,VWS V14.00,2013-01-30 02:57:00,
2013-01-30 05:01:00,41.5,36.1,30.02,NE,45,0.0,0.0,81,0.00,,,0.00,VWS V14.00,2013-01-30 03:01:00,
2013-01-30 05:02:00,41.5,36.1,30.02,ENE,68,0.0,0.0,81,0.00,,,0.00,VWS V14.00,2013-01-30 03:02:00,
2013-01-30 05:06:00,41.5,36.1,30.02,North,0,0.0,0.0,81,0.00,,,0.00,VWS V14.00,2013-01-30 03:06:00,
2013-01-30 05:07:00,41.5,36.1,30.02,North,0,0.0,0.0,81,0.00,,,0.00,VWS V14.00,2013-01-30 03:07:00,
2013-01-30 05:11:00,41.5,36.1,30.02,NW,315,0.6,0.6,81,0.00,,,0.00,VWS V14.00,2013-01-30 03:11:00,
2013-01-30 05:12:00,41.5,36.1,30.02,WNW,292,0.0,0.6,81,0.00,,,0.00,VWS V14.00,2013-01-30 03:12:00,
2013-01-30 05:16:00,41.5,36.1,30.02,WNW,292,0.0,0.0,81,0.00,,,0.00,VWS V14.00,2013-01-30 03:16:00,
2013-01-30 05:17:00,41.5,36.1,30.02,WNW,292,0.0,0.0,81,0.00,,,0.00,VWS V14.00,2013-01-30 03:17:00,
2013-01-30 05:21:00,41.5,36.1,30.02,NW,315,1.1,1.1,81,0.00,,,0.00,VWS V14.00,2013-01-30 03:21:00,
2013-01-30 05:22:00,41.5,36.4,30.02,NNW,338,0.0,1.1,82,0.00,,,0.00,VWS V14.00,2013-01-30 03:22:00,
2013-01-30 05:26:00,41.5,36.4,30.02,WNW,292,1.3,1.3,82,0.00,,,0.00,VWS V14.00,2013-01-30 03:26:00,
2013-01-30 05:27:00,41.3,36.2,30.02,NW,315,0.0,1.3,82,0.00,,,0.00,VWS V14.00,2013-01-30 03:27:00,
2013-01-30 05:31:00,41.3,36.2,30.02,NW,315,0.0,0.0,82,0.00,,,0.00,VWS V14.00,2013-01-30 03:31:00,
2013-01-30 05:32:00,41.3,36.2,30.02,NNW,338,1.1,1.1,82,0.00,,,0.00,VWS V14.00,2013-01-30 03:32:00,
2013-01-30 05:36:00,41.3,36.2,30.02,NE,45,0.0,0.0,82,0.00,,,0.00,VWS V14.00,2013-01-30 03:36:00,
2013-01-30 05:37:00,41.3,36.2,30.02,NNE,22,0.0,0.0,82,0.00,,,0.00,VWS V14.00,2013-01-30 03:37:00,
2013-01-30 05:41:00,41.3,36.2,30.02,NW,315,0.8,0.8,82,0.00,,,0.00,VWS V14.00,2013-01-30 03:41:00,
2013-01-30 05:42:00,41.3,36.2,30.02,NNW,338,0.0,0.8,82,0.00,,,0.00,VWS V14.00,2013-01-30 03:42:00,
2013-01-30 05:46:00,41.3,36.2,30.02,NNW,338,0.0,0.0,82,0.00,,,0.00,VWS V14.00,2013-01-30 03:46:00,
2013-01-30 05:47:00,41.3,36.2,30.02,NNE,22,0.0,0.0,82,0.00,,,0.00,VWS V14.00,2013-01-30 03:47:00,
2013-01-30 05:48:00,41.3,36.2,30.02,NNE,22,0.0,0.0,82,0.00,,,0.00,VWS V14.00,2013-01-30 03:48:00,
2013-01-30 05:51:00,41.1,36.0,30.02,NW,315,0.0,0.0,82,0.00,,,0.00,VWS V14.00,2013-01-30 03:51:00,
2013-01-30 05:52:00,41.1,36.0,30.02,NW,315,0.0,0.0,82,0.00,,,0.00,VWS V14.00,2013-01-30 03:52:00,
2013-01-30 05:53:00,41.1,36.0,30.02,NNE,22,0.0,0.0,82,0.00,,,0.00,VWS V14.00,2013-01-30 03:53:00,
2013-01-30 05:56:00,41.1,36.0,30.02,NW,315,1.5,1.5,82,0.00,,,0.00,VWS V14.00,2013-01-30 03:56:00,
2013-01-30 05:57:00,41.1,36.0,30.02,NW,315,0.0,1.5,82,0.00,,,0.00,VWS V14.00,2013-01-30 03:57:00,
2013-01-30 05:58:00,41.1,36.0,30.02,NW,315,0.0,1.5,82,0.00,,,0.00,VWS V14.00,2013-01-30 03:58:00,
2013-01-30 06:01:00,41.3,36.2,30.02,North,0,0.0,0.0,82,0.00,,,0.00,VWS V14.00,2013-01-30 04:01:00,
2013-01-30 06:02:00,41.1,36.0,30.02,North,0,0.0,0.0,82,0.00,,,0.00,VWS V14.00,2013-01-30 04:02:00,
2013-01-30 06:03:00,41.3,36.2,30.02,NNW,338,1.5,1.5,82,0.00,,,0.00,VWS V14.00,2013-01-30 04:03:00,
2013-01-30 06:06:00,41.3,36.2,30.01,WNW,292,0.0,0.0,82,0.00,,,0.00,VWS V14.00,2013-01-30 04:06:00,
2013-01-30 06:07:00,41.3,36.2,30.01,WNW,292,0.0,0.0,82,0.00,,,0.00,VWS V14.00,2013-01-30 04:07:00,
2013-01-30 06:08:00,41.1,36.0,30.02,NNW,338,1.7,1.7,82,0.00,,,0.00,VWS V14.00,2013-01-30 04:08:00,
2013-01-30 06:11:00,41.3,36.2,30.02,North,0,0.0,0.0,82,0.00,,,0.00,VWS V14.00,2013-01-30 04:11:00,
2013-01-30 06:12:00,41.3,36.2,30.02,NNE,22,1.1,1.1,82,0.00,,,0.00,VWS V14.00,2013-01-30 04:12:00,
2013-01-30 06:13:00,41.3,36.2,30.02,North,0,1.5,1.5,82,0.00,,,0.00,VWS V14.00,2013-01-30 04:13:00,
2013-01-30 06:16:00,41.3,36.2,30.02,North,0,1.5,1.5,82,0.00,,,0.00,VWS V14.00,2013-01-30 04:16:00,
2013-01-30 06:17:00,41.3,36.2,30.01,NNW,338,1.7,1.7,82,0.00,,,0.00,VWS V14.00,2013-01-30 04:17:00,
2013-01-30 06:19:00,41.3,36.2,30.01,NNW,338,3.5,3.5,82,0.00,,,0.00,VWS V14.00,2013-01-30 04:19:00,
2013-01-30 06:21:00,41.3,36.2,30.01,NNW,338,0.8,0.8,82,0.00,,,0.00,VWS V14.00,2013-01-30 04:21:00,
2013-01-30 06:22:00,41.3,36.2,30.01,NNW,338,0.0,0.8,82,0.00,,,0.00,VWS V14.00,2013-01-30 04:22:00,
2013-01-30 06:24:00,41.3,36.2,30.01,NNW,338,0.0,0.8,82,0.00,,,0.00,VWS V14.00,2013-01-30 04:24:00,
2013-01-30 06:26:00,41.3,36.2,30.01,NW,315,1.7,1.7,82,0.00,,,0.00,VWS V14.00,2013-01-30 04:26:00,
2013-01-30 06:28:00,41.3,36.2,30.02,NW,315,1.7,1.7,82,0.00,,,0.00,VWS V14.00,2013-01-30 04:28:00,
2013-01-30 06:29:00,41.3,36.2,30.02,North,0,1.7,1.7,82,0.00,,,0.00,VWS V14.00,2013-01-30 04:29:00,
2013-01-30 06:31:00,41.3,36.2,30.01,NNW,338,0.0,1.7,82,0.00,,,0.00,VWS V14.00,2013-01-30 04:31:00,
2013-01-30 06:33:00,41.3,36.2,30.01,NNW,338,0.0,1.7,82,0.00,,,0.00,VWS V14.00,2013-01-30 04:33:00,
2013-01-30 06:34:00,41.3,36.2,30.01,NNW,338,0.0,1.7,82,0.00,,,0.00,VWS V14.00,2013-01-30 04:34:00,
2013-01-30 06:36:00,41.3,36.2,30.01,NNE,22,0.8,0.8,82,0.00,,,0.00,VWS V14.00,2013-01-30 04:36:00,
2013-01-30 06:38:00,41.5,36.4,30.00,NE,45,1.5,1.5,82,0.00,,,0.00,VWS V14.00,2013-01-30 04:38:00,
2013-01-30 06:39:00,41.5,36.4,30.00,NE,45,1.5,1.5,82,0.00,,,0.00,VWS V14.00,2013-01-30 04:39:00,
2013-01-30 06:41:00,41.5,36.4,30.01,NE,45,0.0,1.1,82,0.00,,,0.00,VWS V14.00,2013-01-30 04:41:00,
2013-01-30 06:43:00,41.5,36.4,30.00,NE,45,0.0,1.1,82,0.00,,,0.00,VWS V14.00,2013-01-30 04:43:00,
2013-01-30 06:44:00,41.5,36.4,30.00,NNE,22,3.1,3.1,82,0.00,,,0.00,VWS V14.00,2013-01-30 04:44:00,
2013-01-30 06:46:00,41.5,36.4,30.01,North,0,3.5,3.5,82,0.00,,,0.00,VWS V14.00,2013-01-30 04:46:00,
2013-01-30 06:48:00,41.5,36.4,30.01,North,0,3.5,3.5,82,0.00,,,0.00,VWS V14.00,2013-01-30 04:48:00,
2013-01-30 06:49:00,41.3,36.2,30.01,NNE,22,0.0,3.5,82,0.00,,,0.00,VWS V14.00,2013-01-30 04:49:00,
2013-01-30 06:51:00,41.3,36.2,30.01,NNW,338,1.3,1.3,82,0.00,,,0.00,VWS V14.00,2013-01-30 04:51:00,
2013-01-30 06:53:00,41.5,36.4,30.02,North,0,0.0,1.3,82,0.00,,,0.00,VWS V14.00,2013-01-30 04:53:00,
2013-01-30 06:54:00,41.5,36.4,30.01,North,0,0.0,1.3,82,0.00,,,0.00,VWS V14.00,2013-01-30 04:54:00,
2013-01-30 06:56:00,41.3,36.2,30.01,North,0,0.8,0.8,82,0.00,,,0.00,VWS V14.00,2013-01-30 04:56:00,
2013-01-30 06:58:00,41.3,36.2,30.01,North,0,0.8,0.8,82,0.00,,,0.00,VWS V14.00,2013-01-30 04:58:00,
2013-01-30 06:59:00,41.5,36.4,30.02,NNW,338,1.5,1.5,82,0.00,,,0.00,VWS V14.00,2013-01-30 04:59:00,
2013-01-30 07:00:00,41.5,36.4,30.02,NNW,338,1.5,1.5,82,0.00,,,0.00,VWS V14.00,2013-01-30 05:00:00,
2013-01-30 07:01:00,41.5,36.4,30.02,NNW,338,1.5,1.5,82,0.00,,,0.00,VWS V14.00,2013-01-30 05:01:00,
2013-01-30 07:02:00,41.5,36.4,30.02,NW,315,2.0,2.0,82,0.00,,,0.00,VWS V14.00,2013-01-30 05:02:00,
2013-01-30 07:05:00,41.5,36.4,30.01,NW,315,1.5,1.5,82,0.00,,,0.00,VWS V14.00,2013-01-30 05:05:00,
2013-01-30 07:06:00,41.5,36.4,30.01,NW,315,1.5,1.5,82,0.00,,,0.00,VWS V14.00,2013-01-30 05:06:00,
2013-01-30 07:07:00,41.5,36.4,30.01,NW,315,1.5,1.5,82,0.00,,,0.00,VWS V14.00,2013-01-30 05:07:00,
2013-01-30 07:11:00,41.5,36.4,30.01,WNW,292,0.0,0.0,82,0.00,,,0.00,VWS V14.00,2013-01-30 05:11:00,
2013-01-30 07:12:00,41.5,36.4,30.01,WNW,292,0.0,0.0,82,0.00,,,0.00,VWS V14.00,2013-01-30 05:12:00,
2013-01-30 07:16:00,41.5,36.4,30.02,North,0,1.3,1.3,82,0.00,,,0.00,VWS V14.00,2013-01-30 05:16:00,
2013-01-30 07:17:00,41.5,36.4,30.02,NW,315,0.0,1.3,82,0.00,,,0.00,VWS V14.00,2013-01-30 05:17:00,
2013-01-30 07:21:00,41.5,36.4,30.02,NW,315,0.0,0.0,82,0.00,,,0.00,VWS V14.00,2013-01-30 05:21:00,
2013-01-30 07:22:00,41.5,36.4,30.02,NW,315,0.0,0.0,82,0.00,,,0.00,VWS V14.00,2013-01-30 05:22:00,
2013-01-30 07:26:00,41.5,36.4,30.02,WNW,292,0.8,0.8,82,0.00,,,0.00,VWS V14.00,2013-01-30 05:26:00,
2013-01-30 07:27:00,41.5,36.4,30.02,WNW,292,0.8,0.8,82,0.00,,,0.00,VWS V14.00,2013-01-30 05:27:00,
2013-01-30 07:31:00,41.7,36.6,30.02,NE,45,1.1,1.1,82,0.00,,,0.00,VWS V14.00,2013-01-30 05:31:00,
2013-01-30 07:32:00,41.7,36.6,30.02,NE,45,1.1,1.1,82,0.00,,,0.00,VWS V14.00,2013-01-30 05:32:00,
2013-01-30 07:36:00,41.5,36.4,30.02,WNW,292,1.1,1.1,82,0.00,,,0.00,VWS V14.00,2013-01-30 05:36:00,
2013-01-30 07:37:00,41.5,36.4,30.02,WNW,292,0.0,1.1,82,0.00,,,0.00,VWS V14.00,2013-01-30 05:37:00,
2013-01-30 07:38:00,41.5,36.4,30.02,WNW,292,0.0,1.1,82,0.00,,,0.00,VWS V14.00,2013-01-30 05:38:00,
2013-01-30 07:41:00,41.5,36.4,30.02,WSW,248,0.0,0.0,82,0.00,,,0.00,VWS V14.00,2013-01-30 05:41:00,
2013-01-30 07:43:00,41.5,36.4,30.02,WSW,248,0.0,0.0,82,0.00,,,0.00,VWS V14.00,2013-01-30 05:43:00,
2013-01-30 07:46:00,41.5,36.4,30.02,SSW,202,1.5,1.7,82,0.00,,,0.00,VWS V14.00,2013-01-30 05:46:00,
2013-01-30 07:48:00,41.5,36.4,30.02,SSW,202,1.5,1.7,82,0.00,,,0.00,VWS V14.00,2013-01-30 05:48:00,
2013-01-30 07:51:00,41.5,36.4,30.02,SSW,202,0.0,0.0,82,0.00,,,0.00,VWS V14.00,2013-01-30 05:51:00,
2013-01-30 07:53:00,41.7,36.6,30.02,West,270,0.0,0.0,82,0.00,,,0.00,VWS V14.00,2013-01-30 05:53:00,
2013-01-30 07:56:00,41.5,36.4,30.02,NNW,338,0.0,0.0,82,0.00,,,0.00,VWS V14.00,2013-01-30 05:56:00,
2013-01-30 07:58:00,41.5,36.4,30.02,NNW,338,0.0,0.0,82,0.00,,,0.00,VWS V14.00,2013-01-30 05:58:00,
2013-01-30 08:01:00,41.7,36.9,30.02,NNW,338,0.0,0.0,83,0.00,,,0.00,VWS V14.00,2013-01-30 06:01:00,
2013-01-30 08:03:00,41.7,36.9,30.02,NNW,338,0.0,0.0,83,0.00,,,0.00,VWS V14.00,2013-01-30 06:03:00,
2013-01-30 08:06:00,41.9,37.1,30.02,NNW,338,0.0,0.0,83,0.00,,,0.00,VWS V14.00,2013-01-30 06:06:00,
2013-01-30 08:08:00,41.9,37.1,30.02,SW,225,1.3,1.3,83,0.00,,,0.00,VWS V14.00,2013-01-30 06:08:00,
2013-01-30 08:11:00,42.0,37.2,30.02,SSW,202,0.0,0.0,83,0.00,,,0.00,VWS V14.00,2013-01-30 06:11:00,
2013-01-30 08:12:00,42.0,37.2,30.02,SSW,202,0.0,0.0,83,0.00,,,0.00,VWS V14.00,2013-01-30 06:12:00,
2013-01-30 08:13:00,42.0,37.2,30.02,ENE,68,0.0,0.0,83,0.00,,,0.00,VWS V14.00,2013-01-30 06:13:00,
2013-01-30 08:14:00,42.0,37.2,30.02,ENE,68,0.0,0.0,83,0.00,,,0.00,VWS V14.00,2013-01-30 06:14:00,
2013-01-30 08:16:00,42.0,37.2,30.02,ENE,68,0.0,0.0,83,0.00,,,0.00,VWS V14.00,2013-01-30 06:16:00,
2013-01-30 08:17:00,42.0,37.2,30.02,ENE,68,0.0,0.0,83,0.00,,,0.00,VWS V14.00,2013-01-30 06:17:00,
2013-01-30 08:18:00,42.0,37.2,30.02,ENE,68,0.0,0.0,83,0.00,,,0.00,VWS V14.00,2013-01-30 06:18:00,
2013-01-30 08:19:00,42.0,37.2,30.02,ENE,68,0.0,0.0,83,0.00,,,0.00,VWS V14.00,2013-01-30 06:19:00,
2013-01-30 08:21:00,42.4,37.6,30.02,ENE,68,0.0,0.0,83,0.00,,,0.00,VWS V14.00,2013-01-30 06:21:00,
2013-01-30 08:22:00,42.4,37.6,30.02,East,90,0.0,0.0,83,0.00,,,0.00,VWS V14.00,2013-01-30 06:22:00,
2013-01-30 08:23:00,42.4,37.6,30.02,East,90,0.0,0.0,83,0.00,,,0.00,VWS V14.00,2013-01-30 06:23:00,
2013-01-30 08:24:00,42.4,37.6,30.02,East,90,0.0,0.0,83,0.00,,,0.00,VWS V14.00,2013-01-30 06:24:00,
2013-01-30 08:26:00,42.6,37.5,30.02,East,90,0.0,0.0,82,0.00,,,0.00,VWS V14.00,2013-01-30 06:26:00,
2013-01-30 08:27:00,42.6,37.5,30.02,East,90,0.0,0.0,82,0.00,,,0.00,VWS V14.00,2013-01-30 06:27:00,
2013-01-30 08:28:00,42.9,37.8,30.02,East,90,0.0,0.0,82,0.00,,,0.00,VWS V14.00,2013-01-30 06:28:00,
2013-01-30 08:29:00,42.9,37.8,30.02,East,90,0.0,0.0,82,0.00,,,0.00,VWS V14.00,2013-01-30 06:29:00,
2013-01-30 08:31:00,42.9,37.8,30.02,ENE,68,0.0,0.0,82,0.00,,,0.00,VWS V14.00,2013-01-30 06:31:00,
2013-01-30 08:32:00,42.9,37.8,30.02,ENE,68,0.0,0.0,82,0.00,,,0.00,VWS V14.00,2013-01-30 06:32:00,
2013-01-30 08:33:00,43.1,38.0,30.02,East,90,0.0,0.0,82,0.00,,,0.00,VWS V14.00,2013-01-30 06:33:00,
2013-01-30 08:34:00,43.1,38.0,30.02,East,90,0.0,0.0,82,0.00,,,0.00,VWS V14.00,2013-01-30 06:34:00,
2013-01-30 08:37:00,43.3,38.2,30.02,East,90,1.3,1.3,82,0.00,,,0.00,VWS V14.00,2013-01-30 06:37:00,
2013-01-30 08:38:00,43.5,38.1,30.02,ENE,68,0.0,1.3,81,0.00,,,0.00,VWS V14.00,2013-01-30 06:38:00,
2013-01-30 08:39:00,43.7,38.3,30.02,East,90,0.0,1.3,81,0.00,,,0.00,VWS V14.00,2013-01-30 06:39:00,
2013-01-30 08:42:00,43.8,38.0,30.01,East,90,0.0,0.0,80,0.00,,,0.00,VWS V14.00,2013-01-30 06:42:00,
2013-01-30 08:44:00,44.2,38.4,30.01,East,90,1.7,1.7,80,0.00,,,0.00,VWS V14.00,2013-01-30 06:44:00,
2013-01-30 08:47:00,44.2,38.1,30.01,ESE,112,0.0,1.7,79,0.00,,,0.00,VWS V14.00,2013-01-30 06:47:00,
2013-01-30 08:49:00,44.2,38.1,30.01,ENE,68,0.8,1.7,79,0.00,,,0.00,VWS V14.00,2013-01-30 06:49:00,
2013-01-30 08:52:00,44.4,38.0,30.01,ESE,112,0.0,2.0,78,0.00,,,0.00,VWS V14.00,2013-01-30 06:52:00,
2013-01-30 08:54:00,44.4,38.0,30.01,ESE,112,0.0,2.0,78,0.00,,,0.00,VWS V14.00,2013-01-30 06:54:00,
2013-01-30 08:57:00,44.9,38.1,30.01,NE,45,0.8,1.1,77,0.00,,,0.00,VWS V14.00,2013-01-30 06:57:00,
2013-01-30 08:59:00,45.1,38.3,30.01,East,90,1.1,1.1,77,0.00,,,0.00,VWS V14.00,2013-01-30 06:59:00,
2013-01-30 09:02:00,45.1,38.0,30.01,ENE,68,0.0,1.1,76,0.00,,,0.00,VWS V14.00,2013-01-30 07:02:00,
2013-01-30 09:04:00,45.3,37.9,30.01,East,90,0.0,1.1,75,0.00,,,0.00,VWS V14.00,2013-01-30 07:04:00,
2013-01-30 09:07:00,45.6,37.5,30.01,East,90,0.0,1.1,73,0.00,,,0.00,VWS V14.00,2013-01-30 07:07:00,
2013-01-30 09:08:00,45.6,37.5,30.01,East,90,0.0,1.1,73,0.00,,,0.00,VWS V14.00,2013-01-30 07:08:00,
2013-01-30 09:09:00,45.6,37.5,30.01,East,90,0.0,1.1,73,0.00,,,0.00,VWS V14.00,2013-01-30 07:09:00,
2013-01-30 09:10:00,45.6,37.5,30.01,East,90,0.0,1.1,73,0.00,,,0.00,VWS V14.00,2013-01-30 07:10:00,
2013-01-30 09:12:00,45.8,37.7,30.01,East,90,0.0,0.0,73,0.00,,,0.00,VWS V14.00,2013-01-30 07:12:00,
2013-01-30 09:13:00,45.8,37.7,30.01,East,90,0.0,0.0,73,0.00,,,0.00,VWS V14.00,2013-01-30 07:13:00,
2013-01-30 09:14:00,46.0,37.5,30.01,ESE,112,0.0,0.0,72,0.00,,,0.00,VWS V14.00,2013-01-30 07:14:00,
2013-01-30 09:15:00,46.0,37.5,30.01,ESE,112,0.0,0.0,72,0.00,,,0.00,VWS V14.00,2013-01-30 07:15:00,
2013-01-30 09:18:00,46.0,37.5,30.00,ESE,112,1.3,1.3,72,0.00,,,0.00,VWS V14.00,2013-01-30 07:18:00,
2013-01-30 09:19:00,46.2,37.7,30.00,SE,135,1.3,1.3,72,0.00,,,0.00,VWS V14.00,2013-01-30 07:19:00,
2013-01-30 09:20:00,46.2,37.7,30.00,SE,135,1.3,1.3,72,0.00,,,0.00,VWS V14.00,2013-01-30 07:20:00,
2013-01-30 09:23:00,46.4,37.9,30.00,East,90,0.8,1.3,72,0.00,,,0.00,VWS V14.00,2013-01-30 07:23:00,
2013-01-30 09:24:00,46.5,38.0,30.01,ENE,68,0.0,1.3,72,0.00,,,0.00,VWS V14.00,2013-01-30 07:24:00,
2013-01-30 09:25:00,46.5,38.0,30.01,ENE,68,0.0,1.3,72,0.00,,,0.00,VWS V14.00,2013-01-30 07:25:00,
2013-01-30 09:28:00,46.5,37.6,30.01,SSE,158,0.0,0.0,71,0.00,,,0.00,VWS V14.00,2013-01-30 07:28:00,
2013-01-30 09:29:00,46.5,38.0,30.01,ESE,112,0.8,0.8,72,0.00,,,0.00,VWS V14.00,2013-01-30 07:29:00,
2013-01-30 09:30:00,46.5,38.0,30.01,ESE,112,0.8,0.8,72,0.00,,,0.00,VWS V14.00,2013-01-30 07:30:00,
2013-01-30 09:33:00,46.7,37.8,30.01,ESE,112,1.1,1.1,71,0.00,,,0.00,VWS V14.00,2013-01-30 07:33:00,
2013-01-30 09:34:00,46.9,37.6,30.00,ESE,112,0.0,1.1,70,0.00,,,0.00,VWS V14.00,2013-01-30 07:34:00,
2013-01-30 09:35:00,47.1,37.5,30.00,ESE,112,0.0,0.0,69,0.00,,,0.00,VWS V14.00,2013-01-30 07:35:00,
2013-01-30 09:38:00,47.1,37.5,30.00,ENE,68,0.0,0.0,69,0.00,,,0.00,VWS V14.00,2013-01-30 07:38:00,
2013-01-30 09:39:00,47.3,37.7,30.01,ESE,112,2.2,2.2,69,0.00,,,0.00,VWS V14.00,2013-01-30 07:39:00,
2013-01-30 09:40:00,47.3,37.7,30.01,ESE,112,2.2,2.2,69,0.00,,,0.00,VWS V14.00,2013-01-30 07:40:00,
2013-01-30 09:43:00,47.6,37.6,30.01,NE,45,0.0,2.2,68,0.00,,,0.00,VWS V14.00,2013-01-30 07:43:00,
2013-01-30 09:44:00,47.6,37.6,30.01,NE,45,0.0,2.2,68,0.00,,,0.00,VWS V14.00,2013-01-30 07:44:00,
2013-01-30 09:45:00,47.6,37.6,30.00,NE,45,0.0,0.0,68,0.00,,,0.00,VWS V14.00,2013-01-30 07:45:00,
2013-01-30 09:48:00,47.8,37.4,30.01,ESE,112,0.0,0.0,67,0.00,,,0.00,VWS V14.00,2013-01-30 07:48:00,
2013-01-30 09:49:00,47.8,37.4,30.01,ESE,112,0.0,0.0,67,0.00,,,0.00,VWS V14.00,2013-01-30 07:49:00,
2013-01-30 09:50:00,47.8,37.4,30.01,ESE,112,0.0,0.0,67,0.00,,,0.00,VWS V14.00,2013-01-30 07:50:00,
2013-01-30 09:53:00,48.0,37.6,30.01,ESE,112,0.0,0.0,67,0.00,,,0.00,VWS V14.00,2013-01-30 07:53:00,
2013-01-30 09:54:00,48.0,37.6,30.01,SW,225,3.1,3.1,67,0.00,,,0.00,VWS V14.00,2013-01-30 07:54:00,
2013-01-30 09:55:00,48.0,37.6,30.01,SW,225,3.1,3.1,67,0.00,,,0.00,VWS V14.00,2013-01-30 07:55:00,
2013-01-30 09:58:00,48.2,37.0,30.01,SW,225,0.0,3.1,65,0.00,,,0.00,VWS V14.00,2013-01-30 07:58:00,
2013-01-30 09:59:00,48.3,37.1,30.01,SW,225,0.0,3.1,65,0.00,,,0.00,VWS V14.00,2013-01-30 07:59:00,
2013-01-30 10:00:00,48.3,37.1,30.01,SW,225,0.0,0.0,65,0.00,,,0.00,VWS V14.00,2013-01-30 08:00:00,
2013-01-30 10:03:00,48.5,37.3,30.01,SW,225,1.3,1.3,65,0.00,,,0.00,VWS V14.00,2013-01-30 08:03:00,
2013-01-30 10:04:00,48.5,37.3,30.01,SW,225,1.3,1.3,65,0.00,,,0.00,VWS V14.00,2013-01-30 08:04:00,
2013-01-30 10:05:00,48.3,36.7,30.01,WSW,248,0.8,0.8,64,0.00,,,0.00,VWS V14.00,2013-01-30 08:05:00,
2013-01-30 10:08:00,48.3,36.7,30.01,SW,225,0.8,0.8,64,0.00,,,0.00,VWS V14.00,2013-01-30 08:08:00,
2013-01-30 10:09:00,48.7,37.1,30.01,SW,225,3.1,3.1,64,0.00,,,0.00,VWS V14.00,2013-01-30 08:09:00,
2013-01-30 10:10:00,48.7,37.1,30.01,SW,225,3.1,3.1,64,0.00,,,0.00,VWS V14.00,2013-01-30 08:10:00,
2013-01-30 10:13:00,49.2,37.2,30.01,SW,225,0.0,3.1,63,0.00,,,0.00,VWS V14.00,2013-01-30 08:13:00,
2013-01-30 10:14:00,49.2,37.2,30.01,SW,225,0.0,3.1,63,0.00,,,0.00,VWS V14.00,2013-01-30 08:14:00,
2013-01-30 10:15:00,49.4,37.3,30.01,SW,225,0.0,0.0,63,0.00,,,0.00,VWS V14.00,2013-01-30 08:15:00,
2013-01-30 10:18:00,49.6,37.1,30.02,SSW,202,0.0,0.0,62,0.00,,,0.00,VWS V14.00,2013-01-30 08:18:00,
2013-01-30 10:20:00,49.6,37.1,30.02,SSW,202,0.0,0.0,62,0.00,,,0.00,VWS V14.00,2013-01-30 08:20:00,
2013-01-30 10:23:00,49.2,36.3,30.02,WNW,292,0.0,0.0,61,0.00,,,0.00,VWS V14.00,2013-01-30 08:23:00,
2013-01-30 10:24:00,49.2,36.3,30.02,WNW,292,0.0,0.0,61,0.00,,,0.00,VWS V14.00,2013-01-30 08:24:00,
2013-01-30 10:25:00,49.2,35.9,30.02,SW,225,0.0,0.0,60,0.00,,,0.00,VWS V14.00,2013-01-30 08:25:00,
2013-01-30 10:28:00,49.2,35.9,30.01,East,90,2.2,2.2,60,0.00,,,0.00,VWS V14.00,2013-01-30 08:28:00,
2013-01-30 10:29:00,49.2,35.9,30.01,East,90,2.2,2.2,60,0.00,,,0.00,VWS V14.00,2013-01-30 08:29:00,
2013-01-30 10:30:00,49.1,35.8,30.02,East,90,2.2,2.2,60,0.00,,,0.00,VWS V14.00,2013-01-30 08:30:00,
2013-01-30 10:31:00,49.1,35.8,30.02,East,90,2.2,2.2,60,0.00,,,0.00,VWS V14.00,2013-01-30 08:31:00,
2013-01-30 10:33:00,49.2,35.5,30.02,East,90,0.0,2.2,59,0.00,,,0.00,VWS V14.00,2013-01-30 08:33:00,
2013-01-30 10:34:00,49.2,35.5,30.02,East,90,0.0,2.2,59,0.00,,,0.00,VWS V14.00,2013-01-30 08:34:00,
2013-01-30 10:35:00,49.2,35.5,30.02,East,90,0.0,2.2,59,0.00,,,0.00,VWS V14.00,2013-01-30 08:35:00,
2013-01-30 10:36:00,49.2,35.5,30.01,SE,135,0.0,0.0,59,0.00,,,0.00,VWS V14.00,2013-01-30 08:36:00,
2013-01-30 10:38:00,49.2,35.5,30.01,SE,135,0.0,0.0,59,0.00,,,0.00,VWS V14.00,2013-01-30 08:38:00,
2013-01-30 10:39:00,49.2,35.5,30.01,SE,135,0.0,0.0,59,0.00,,,0.00,VWS V14.00,2013-01-30 08:39:00,
2013-01-30 10:40:00,49.2,35.9,30.01,SSE,158,0.0,0.0,60,0.00,,,0.00,VWS V14.00,2013-01-30 08:40:00,
2013-01-30 10:41:00,49.2,35.9,30.01,SSE,158,0.0,0.0,60,0.00,,,0.00,VWS V14.00,2013-01-30 08:41:00,
2013-01-30 10:43:00,49.1,35.4,30.00,South,180,0.0,0.0,59,0.00,,,0.00,VWS V14.00,2013-01-30 08:43:00,
2013-01-30 10:44:00,49.1,35.4,30.00,South,180,0.0,0.0,59,0.00,,,0.00,VWS V14.00,2013-01-30 08:44:00,
2013-01-30 10:45:00,49.1,35.4,30.01,South,180,0.0,0.0,59,0.00,,,0.00,VWS V14.00,2013-01-30 08:45:00,
2013-01-30 10:46:00,49.1,35.4,30.01,South,180,0.0,0.0,59,0.00,,,0.00,VWS V14.00,2013-01-30 08:46:00,
2013-01-30 10:48:00,49.2,35.5,30.01,ESE,112,0.0,0.0,59,0.00,,,0.00,VWS V14.00,2013-01-30 08:48:00,
2013-01-30 10:49:00,49.2,35.5,30.01,ESE,112,0.0,0.0,59,0.00,,,0.00,VWS V14.00,2013-01-30 08:49:00,
2013-01-30 10:50:00,49.2,35.1,30.01,ESE,112,0.0,0.0,58,0.00,,,0.00,VWS V14.00,2013-01-30 08:50:00,
2013-01-30 10:51:00,49.2,35.1,30.01,ESE,112,0.0,0.0,58,0.00,,,0.00,VWS V14.00,2013-01-30 08:51:00,
2013-01-30 10:53:00,49.6,35.5,30.01,SSE,158,0.0,0.0,58,0.00,,,0.00,VWS V14.00,2013-01-30 08:53:00,
2013-01-30 10:54:00,49.8,34.8,30.01,East,90,0.0,0.0,56,0.00,,,0.00,VWS V14.00,2013-01-30 08:54:00,
2013-01-30 10:55:00,49.8,34.8,30.01,East,90,0.0,0.0,56,0.00,,,0.00,VWS V14.00,2013-01-30 08:55:00,
2013-01-30 10:56:00,49.8,34.8,30.01,East,90,0.0,0.0,56,0.00,,,0.00,VWS V14.00,2013-01-30 08:56:00,
2013-01-30 10:58:00,50.1,35.0,30.01,ESE,112,1.1,1.1,56,0.00,,,0.00,VWS V14.00,2013-01-30 08:58:00,
2013-01-30 10:59:00,50.1,35.0,30.01,ESE,112,1.1,1.1,56,0.00,,,0.00,VWS V14.00,2013-01-30 08:59:00,
2013-01-30 11:00:00,50.1,35.0,30.01,East,90,0.0,1.1,56,0.00,,,0.00,VWS V14.00,2013-01-30 09:00:00,
2013-01-30 11:01:00,50.1,35.0,30.01,East,90,0.0,0.0,56,0.00,,,0.00,VWS V14.00,2013-01-30 09:01:00,
2013-01-30 11:03:00,50.3,35.2,30.00,SE,135,0.8,0.8,56,0.00,,,0.00,VWS V14.00,2013-01-30 09:03:00,
2013-01-30 11:04:00,50.3,35.2,30.00,SE,135,0.8,0.8,56,0.00,,,0.00,VWS V14.00,2013-01-30 09:04:00,
2013-01-30 11:05:00,50.5,35.4,30.00,East,90,1.7,1.7,56,0.00,,,0.00,VWS V14.00,2013-01-30 09:05:00,
2013-01-30 11:06:00,50.5,35.4,30.01,East,90,1.7,1.7,56,0.00,,,0.00,VWS V14.00,2013-01-30 09:06:00,
2013-01-30 11:09:00,50.7,34.7,30.00,ESE,112,2.0,2.0,54,0.00,,,0.00,VWS V14.00,2013-01-30 09:09:00,
2013-01-30 11:10:00,50.7,34.7,30.00,ESE,112,0.0,2.0,54,0.00,,,0.00,VWS V14.00,2013-01-30 09:10:00,
2013-01-30 11:11:00,50.7,34.7,30.00,NE,45,1.3,1.3,54,0.00,,,0.00,VWS V14.00,2013-01-30 09:11:00,
2013-01-30 11:14:00,50.7,34.2,30.00,ENE,68,0.0,1.3,53,0.00,,,0.00,VWS V14.00,2013-01-30 09:14:00,
2013-01-30 11:15:00,50.7,34.2,30.00,ESE,112,0.0,0.0,53,0.00,,,0.00,VWS V14.00,2013-01-30 09:15:00,
2013-01-30 11:16:00,50.7,34.2,30.00,ESE,112,0.0,0.0,53,0.00,,,0.00,VWS V14.00,2013-01-30 09:16:00,
2013-01-30 11:19:00,50.7,34.2,30.00,ESE,112,0.8,0.8,53,0.00,,,0.00,VWS V14.00,2013-01-30 09:19:00,
2013-01-30 11:20:00,50.9,34.4,30.00,East,90,1.3,1.3,53,0.00,,,0.00,VWS V14.00,2013-01-30 09:20:00,
2013-01-30 11:21:00,50.9,34.4,30.00,East,90,1.3,1.3,53,0.00,,,0.00,VWS V14.00,2013-01-30 09:21:00,
2013-01-30 11:24:00,50.9,34.4,29.99,ENE,68,1.3,1.3,53,0.00,,,0.00,VWS V14.00,2013-01-30 09:24:00,
2013-01-30 11:25:00,51.0,35.0,29.99,ENE,68,0.0,0.0,54,0.00,,,0.00,VWS V14.00,2013-01-30 09:25:00,
2013-01-30 11:26:00,51.0,35.0,29.99,ENE,68,0.0,0.0,54,0.00,,,0.00,VWS V14.00,2013-01-30 09:26:00,
2013-01-30 11:29:00,51.0,35.0,29.99,East,90,0.0,0.0,54,0.00,,,0.00,VWS V14.00,2013-01-30 09:29:00,
2013-01-30 11:30:00,51.0,35.0,29.99,East,90,0.0,0.0,54,0.00,,,0.00,VWS V14.00,2013-01-30 09:30:00,
2013-01-30 11:31:00,51.2,35.1,29.99,North,0,0.8,0.8,54,0.00,,,0.00,VWS V14.00,2013-01-30 09:31:00,
2013-01-30 11:34:00,51.4,35.3,29.99,NNE,22,0.0,0.8,54,0.00,,,0.00,VWS V14.00,2013-01-30 09:34:00,
2013-01-30 11:35:00,51.4,35.3,29.99,NNE,22,0.0,0.8,54,0.00,,,0.00,VWS V14.00,2013-01-30 09:35:00,
2013-01-30 11:36:00,51.4,34.9,29.99,SE,135,1.3,1.3,53,0.00,,,0.00,VWS V14.00,2013-01-30 09:36:00,
2013-01-30 11:39:00,51.6,35.0,29.99,SE,135,0.0,2.2,53,0.00,,,0.00,VWS V14.00,2013-01-30 09:39:00,
2013-01-30 11:40:00,51.6,35.0,29.99,SE,135,0.0,0.0,53,0.00,,,0.00,VWS V14.00,2013-01-30 09:40:00,
2013-01-30 11:41:00,51.6,34.6,29.99,ENE,68,0.0,0.0,52,0.00,,,0.00,VWS V14.00,2013-01-30 09:41:00,
2013-01-30 11:44:00,51.4,34.9,29.99,SSW,202,2.0,2.0,53,0.00,,,0.00,VWS V14.00,2013-01-30 09:44:00,
2013-01-30 11:45:00,51.4,34.9,29.99,SSW,202,2.0,2.0,53,0.00,,,0.00,VWS V14.00,2013-01-30 09:45:00,
2013-01-30 11:46:00,51.6,35.5,29.99,SSW,202,2.6,2.6,54,0.00,,,0.00,VWS V14.00,2013-01-30 09:46:00,
2013-01-30 11:49:00,51.6,35.5,29.99,East,90,1.5,2.6,54,0.00,,,0.00,VWS V14.00,2013-01-30 09:49:00,
2013-01-30 11:50:00,51.6,35.5,29.99,South,180,2.2,2.2,54,0.00,,,0.00,VWS V14.00,2013-01-30 09:50:00,
2013-01-30 11:51:00,51.6,35.5,29.99,South,180,2.2,2.2,54,0.00,,,0.00,VWS V14.00,2013-01-30 09:51:00,
2013-01-30 11:55:00,51.8,34.8,29.99,East,90,0.0,2.2,52,0.00,,,0.00,VWS V14.00,2013-01-30 09:55:00,
2013-01-30 11:56:00,51.9,35.3,29.99,SE,135,0.8,0.8,53,0.00,,,0.00,VWS V14.00,2013-01-30 09:56:00,
2013-01-30 12:00:00,51.9,35.3,29.99,SE,135,0.0,0.8,53,0.00,,,0.00,VWS V14.00,2013-01-30 10:00:00,
2013-01-30 12:01:00,52.1,35.5,29.99,East,90,2.2,2.2,53,0.00,,,0.00,VWS V14.00,2013-01-30 10:01:00,
2013-01-30 12:05:00,52.3,35.2,29.98,East,90,2.2,2.2,52,0.00,,,0.00,VWS V14.00,2013-01-30 10:05:00,
2013-01-30 12:06:00,52.3,34.7,29.98,East,90,0.8,0.8,51,0.00,,,0.00,VWS V14.00,2013-01-30 10:06:00,
2013-01-30 12:10:00,52.3,35.2,29.98,SE,135,0.0,1.7,52,0.00,,,0.00,VWS V14.00,2013-01-30 10:10:00,
2013-01-30 12:11:00,52.3,35.2,29.98,SSW,202,0.0,0.0,52,0.00,,,0.00,VWS V14.00,2013-01-30 10:11:00,
2013-01-30 12:15:00,52.5,35.4,29.98,SW,225,3.3,3.3,52,0.00,,,0.00,VWS V14.00,2013-01-30 10:15:00,
2013-01-30 12:16:00,52.5,35.4,29.98,SW,225,3.3,3.3,52,0.00,,,0.00,VWS V14.00,2013-01-30 10:16:00,
2013-01-30 12:20:00,52.8,34.2,29.98,East,90,1.7,1.7,49,0.00,,,0.00,VWS V14.00,2013-01-30 10:20:00,
2013-01-30 12:21:00,52.8,34.2,29.98,East,90,1.7,1.7,49,0.00,,,0.00,VWS V14.00,2013-01-30 10:21:00,
2013-01-30 12:25:00,53.2,34.5,29.97,SE,135,0.8,0.8,49,0.00,,,0.00,VWS V14.00,2013-01-30 10:25:00,
2013-01-30 12:26:00,53.2,34.5,29.97,SE,135,0.8,0.8,49,0.00,,,0.00,VWS V14.00,2013-01-30 10:26:00,
2013-01-30 12:30:00,53.4,34.2,29.97,SSW,202,3.1,3.1,48,0.00,,,0.00,VWS V14.00,2013-01-30 10:30:00,
2013-01-30 12:31:00,53.4,34.2,29.97,SSW,202,3.1,3.1,48,0.00,,,0.00,VWS V14.00,2013-01-30 10:31:00,
2013-01-30 12:32:00,53.7,35.0,29.98,SSW,202,3.1,3.1,49,0.00,,,0.00,VWS V14.00,2013-01-30 10:32:00,
2013-01-30 12:35:00,53.7,35.0,29.97,NNW,338,2.0,2.0,49,0.00,,,0.00,VWS V14.00,2013-01-30 10:35:00,
2013-01-30 12:36:00,53.7,35.0,29.97,NNW,338,2.0,2.0,49,0.00,,,0.00,VWS V14.00,2013-01-30 10:36:00,
2013-01-30 12:37:00,53.7,35.0,29.97,NNW,338,2.0,2.0,49,0.00,,,0.00,VWS V14.00,2013-01-30 10:37:00,
2013-01-30 12:40:00,53.7,33.4,29.96,NNE,22,2.2,2.2,46,0.00,,,0.00,VWS V14.00,2013-01-30 10:40:00,
2013-01-30 12:41:00,53.7,33.4,29.96,NNE,22,2.2,2.2,46,0.00,,,0.00,VWS V14.00,2013-01-30 10:41:00,
2013-01-30 12:42:00,53.6,32.8,29.97,SW,225,0.0,2.2,45,0.00,,,0.00,VWS V14.00,2013-01-30 10:42:00,
2013-01-30 12:45:00,53.7,33.4,29.97,SW,225,3.3,3.3,46,0.00,,,0.00,VWS V14.00,2013-01-30 10:45:00,
2013-01-30 12:46:00,53.7,33.4,29.97,SW,225,3.3,3.3,46,0.00,,,0.00,VWS V14.00,2013-01-30 10:46:00,
2013-01-30 12:47:00,53.7,33.4,29.97,West,270,1.3,3.3,46,0.00,,,0.00,VWS V14.00,2013-01-30 10:47:00,
2013-01-30 12:50:00,53.9,34.2,29.96,SSW,202,6.0,6.0,47,0.00,,,0.00,VWS V14.00,2013-01-30 10:50:00,
2013-01-30 12:51:00,53.9,34.2,29.96,SSW,202,6.0,6.0,47,0.00,,,0.00,VWS V14.00,2013-01-30 10:51:00,
2013-01-30 12:52:00,54.3,34.0,29.96,WNW,292,3.5,6.0,46,0.00,,,0.00,VWS V14.00,2013-01-30 10:52:00,
2013-01-30 12:55:00,54.3,34.0,29.96,West,270,2.9,2.9,46,0.00,,,0.00,VWS V14.00,2013-01-30 10:55:00,
2013-01-30 12:56:00,54.3,34.0,29.96,West,270,2.9,2.9,46,0.00,,,0.00,VWS V14.00,2013-01-30 10:56:00,
2013-01-30 12:57:00,54.5,34.2,29.96,West,270,2.2,2.9,46,0.00,,,0.00,VWS V14.00,2013-01-30 10:57:00,
2013-01-30 13:00:00,54.5,33.6,29.96,SW,225,0.8,0.8,45,0.00,,,0.00,VWS V14.00,2013-01-30 11:00:00,
2013-01-30 13:01:00,54.6,33.7,29.96,SW,225,0.8,0.8,45,0.00,,,0.00,VWS V14.00,2013-01-30 11:01:00,
2013-01-30 13:02:00,54.6,33.7,29.96,SW,225,0.8,0.8,45,0.00,,,0.00,VWS V14.00,2013-01-30 11:02:00,
2013-01-30 13:05:00,55.0,33.5,29.96,North,0,2.4,2.4,44,0.00,,,0.00,VWS V14.00,2013-01-30 11:05:00,
2013-01-30 13:06:00,55.0,33.5,29.96,North,0,2.4,2.4,44,0.00,,,0.00,VWS V14.00,2013-01-30 11:06:00,
2013-01-30 13:07:00,54.8,33.3,29.96,WNW,292,1.3,2.4,44,0.00,,,0.00,VWS V14.00,2013-01-30 11:07:00,
2013-01-30 13:11:00,54.8,33.9,29.96,WNW,292,3.8,3.8,45,0.00,,,0.00,VWS V14.00,2013-01-30 11:11:00,
2013-01-30 13:12:00,55.0,33.5,29.96,WSW,248,0.0,3.8,44,0.00,,,0.00,VWS V14.00,2013-01-30 11:12:00,
2013-01-30 13:16:00,54.8,33.9,29.96,SW,225,3.5,3.5,45,0.00,,,0.00,VWS V14.00,2013-01-30 11:16:00,
2013-01-30 13:17:00,55.0,34.1,29.96,SW,225,3.5,3.5,45,0.00,,,0.00,VWS V14.00,2013-01-30 11:17:00,
2013-01-30 13:21:00,55.0,33.5,29.96,SW,225,2.2,2.2,44,0.00,,,0.00,VWS V14.00,2013-01-30 11:21:00,
2013-01-30 13:23:00,54.8,33.3,29.96,NW,315,4.6,4.6,44,0.00,,,0.00,VWS V14.00,2013-01-30 11:23:00,
2013-01-30 13:26:00,55.0,33.5,29.96,SSW,202,4.2,4.2,44,0.00,,,0.00,VWS V14.00,2013-01-30 11:26:00,
2013-01-30 13:28:00,55.0,34.1,29.96,West,270,0.0,4.2,45,0.00,,,0.00,VWS V14.00,2013-01-30 11:28:00,
2013-01-30 13:31:00,55.0,34.1,29.96,WSW,248,4.4,4.4,45,0.00,,,0.00,VWS V14.00,2013-01-30 11:31:00,
2013-01-30 13:33:00,55.0,33.5,29.96,WSW,248,4.4,4.4,44,0.00,,,0.00,VWS V14.00,2013-01-30 11:33:00,
2013-01-30 13:36:00,55.0,32.9,29.96,South,180,0.0,0.0,43,0.00,,,0.00,VWS V14.00,2013-01-30 11:36:00,
2013-01-30 13:37:00,55.0,32.9,29.96,South,180,0.0,0.0,43,0.00,,,0.00,VWS V14.00,2013-01-30 11:37:00,
2013-01-30 13:38:00,55.0,32.9,29.96,West,270,0.0,0.0,43,0.00,,,0.00,VWS V14.00,2013-01-30 11:38:00,
2013-01-30 13:41:00,55.0,33.5,29.95,NNW,338,0.8,1.1,44,0.00,,,0.00,VWS V14.00,2013-01-30 11:41:00,
2013-01-30 13:42:00,55.0,33.5,29.95,NNW,338,0.8,1.1,44,0.00,,,0.00,VWS V14.00,2013-01-30 11:42:00,
2013-01-30 13:43:00,55.2,33.1,29.95,North,0,0.0,1.1,43,0.00,,,0.00,VWS V14.00,2013-01-30 11:43:00,
2013-01-30 13:46:00,55.0,32.9,29.95,West,270,0.0,0.0,43,0.00,,,0.00,VWS V14.00,2013-01-30 11:46:00,
2013-01-30 13:47:00,55.0,32.9,29.95,West,270,0.0,0.0,43,0.00,,,0.00,VWS V14.00,2013-01-30 11:47:00,
2013-01-30 13:48:00,55.0,32.9,29.95,ENE,68,1.3,1.3,43,0.00,,,0.00,VWS V14.00,2013-01-30 11:48:00,
2013-01-30 13:51:00,55.0,33.5,29.95,West,270,0.0,0.0,44,0.00,,,0.00,VWS V14.00,2013-01-30 11:51:00,
2013-01-30 13:52:00,55.0,33.5,29.95,West,270,0.0,0.0,44,0.00,,,0.00,VWS V14.00,2013-01-30 11:52:00,
2013-01-30 13:53:00,55.0,33.5,29.95,WNW,292,0.0,0.0,44,0.00,,,0.00,VWS V14.00,2013-01-30 11:53:00,
2013-01-30 13:57:00,55.2,34.2,29.95,SW,225,2.6,3.5,45,0.00,,,0.00,VWS V14.00,2013-01-30 11:57:00,
2013-01-30 13:58:00,55.2,34.2,29.95,SW,225,8.0,8.0,45,0.00,,,0.00,VWS V14.00,2013-01-30 11:58:00,
2013-01-30 14:02:00,55.5,34.5,29.94,SW,225,4.0,4.0,45,0.00,,,0.00,VWS V14.00,2013-01-30 12:02:00,
2013-01-30 14:03:00,55.4,33.9,29.95,SSW,202,3.8,4.0,44,0.00,,,0.00,VWS V14.00,2013-01-30 12:03:00,
2013-01-30 14:07:00,55.5,34.0,29.94,West,270,0.0,0.0,44,0.00,,,0.00,VWS V14.00,2013-01-30 12:07:00,
2013-01-30 14:08:00,55.5,34.0,29.94,South,180,2.9,2.9,44,0.00,,,0.00,VWS V14.00,2013-01-30 12:08:00,
2013-01-30 14:12:00,55.4,33.9,29.94,WSW,248,1.3,1.3,44,0.00,,,0.00,VWS V14.00,2013-01-30 12:12:00,
2013-01-30 14:14:00,55.4,33.3,29.94,WSW,248,2.9,2.9,43,0.00,,,0.00,VWS V14.00,2013-01-30 12:14:00,
2013-01-30 14:17:00,55.5,33.4,29.94,SSW,202,2.6,2.6,43,0.00,,,0.00,VWS V14.00,2013-01-30 12:17:00,
2013-01-30 14:19:00,55.5,33.4,29.93,South,180,3.1,3.1,43,0.00,,,0.00,VWS V14.00,2013-01-30 12:19:00,
2013-01-30 14:22:00,55.9,33.8,29.93,SW,225,3.5,7.8,43,0.00,,,0.00,VWS V14.00,2013-01-30 12:22:00,
2013-01-30 14:24:00,55.9,33.8,29.93,SW,225,3.5,7.8,43,0.00,,,0.00,VWS V14.00,2013-01-30 12:24:00,
2013-01-30 14:27:00,56.1,35.1,29.93,WNW,292,3.1,3.1,45,0.00,,,0.00,VWS V14.00,2013-01-30 12:27:00,
2013-01-30 14:29:00,56.1,35.1,29.93,NW,315,1.1,3.1,45,0.00,,,0.00,VWS V14.00,2013-01-30 12:29:00,
2013-01-30 14:32:00,56.3,33.5,29.93,West,270,1.3,1.3,42,0.00,,,0.00,VWS V14.00,2013-01-30 12:32:00,
2013-01-30 14:34:00,56.3,32.9,29.93,WSW,248,1.1,1.3,41,0.00,,,0.00,VWS V14.00,2013-01-30 12:34:00,
2013-01-30 14:37:00,56.3,32.9,29.93,SSW,202,2.2,2.2,41,0.00,,,0.00,VWS V14.00,2013-01-30 12:37:00,
2013-01-30 14:38:00,56.3,32.9,29.93,SSW,202,2.2,2.2,41,0.00,,,0.00,VWS V14.00,2013-01-30 12:38:00,
2013-01-30 14:39:00,56.3,32.9,29.93,SSW,202,2.2,2.2,41,0.00,,,0.00,VWS V14.00,2013-01-30 12:39:00,
2013-01-30 14:42:00,56.3,33.5,29.93,West,270,8.0,8.0,42,0.00,,,0.00,VWS V14.00,2013-01-30 12:42:00,
2013-01-30 14:43:00,56.3,33.5,29.93,West,270,8.0,8.0,42,0.00,,,0.00,VWS V14.00,2013-01-30 12:43:00,
2013-01-30 14:44:00,56.3,33.5,29.93,WNW,292,0.0,8.0,42,0.00,,,0.00,VWS V14.00,2013-01-30 12:44:00,
2013-01-30 14:47:00,56.1,33.9,29.93,SSW,202,5.1,5.1,43,0.00,,,0.00,VWS V14.00,2013-01-30 12:47:00,
2013-01-30 14:48:00,56.1,33.9,29.93,SSW,202,5.1,5.1,43,0.00,,,0.00,VWS V14.00,2013-01-30 12:48:00,
2013-01-30 14:49:00,56.1,33.9,29.93,SSE,158,0.0,5.1,43,0.00,,,0.00,VWS V14.00,2013-01-30 12:49:00,
2013-01-30 14:52:00,56.3,34.7,29.93,SW,225,2.2,2.2,44,0.00,,,0.00,VWS V14.00,2013-01-30 12:52:00,
2013-01-30 14:53:00,56.3,34.7,29.93,SW,225,2.2,2.2,44,0.00,,,0.00,VWS V14.00,2013-01-30 12:53:00,
2013-01-30 14:54:00,56.3,34.7,29.93,SW,225,2.0,2.2,44,0.00,,,0.00,VWS V14.00,2013-01-30 12:54:00,
2013-01-30 14:57:00,56.3,35.2,29.93,SSW,202,2.4,2.4,45,0.00,,,0.00,VWS V14.00,2013-01-30 12:57:00,
2013-01-30 14:58:00,56.3,35.2,29.93,SSW,202,2.4,2.4,45,0.00,,,0.00,VWS V14.00,2013-01-30 12:58:00,
2013-01-30 15:00:00,56.1,35.6,29.93,ESE,112,0.6,2.4,46,0.00,,,0.00,VWS V14.00,2013-01-30 13:00:00,
2013-01-30 15:02:00,56.1,35.6,29.93,South,180,0.0,5.5,46,0.00,,,0.00,VWS V14.00,2013-01-30 13:02:00,
2013-01-30 15:03:00,56.1,35.6,29.93,South,180,0.0,5.5,46,0.00,,,0.00,VWS V14.00,2013-01-30 13:03:00,
2013-01-30 15:05:00,56.1,35.6,29.93,South,180,0.0,5.5,46,0.00,,,0.00,VWS V14.00,2013-01-30 13:05:00,
2013-01-30 15:07:00,56.1,35.1,29.93,South,180,4.4,4.4,45,0.00,,,0.00,VWS V14.00,2013-01-30 13:07:00,
2013-01-30 15:08:00,56.1,35.1,29.93,South,180,4.4,4.4,45,0.00,,,0.00,VWS V14.00,2013-01-30 13:08:00,
2013-01-30 15:10:00,56.1,35.6,29.93,SW,225,1.3,4.4,46,0.00,,,0.00,VWS V14.00,2013-01-30 13:10:00,
2013-01-30 15:12:00,56.3,35.8,29.93,WNW,292,0.0,1.3,46,0.00,,,0.00,VWS V14.00,2013-01-30 13:12:00,
2013-01-30 15:13:00,56.3,35.8,29.93,WNW,292,0.0,1.3,46,0.00,,,0.00,VWS V14.00,2013-01-30 13:13:00,
2013-01-30 15:15:00,56.3,35.2,29.93,WSW,248,2.0,2.0,45,0.00,,,0.00,VWS V14.00,2013-01-30 13:15:00,
2013-01-30 15:18:00,56.3,33.5,29.93,West,270,1.5,3.8,42,0.00,,,0.00,VWS V14.00,2013-01-30 13:18:00,
2013-01-30 15:20:00,56.3,33.5,29.93,West,270,1.5,3.8,42,0.00,,,0.00,VWS V14.00,2013-01-30 13:20:00,
2013-01-30 15:23:00,56.3,32.9,29.93,NW,315,1.5,2.9,41,0.00,,,0.00,VWS V14.00,2013-01-30 13:23:00,
2013-01-30 15:25:00,56.4,32.4,29.93,WSW,248,1.3,1.3,40,0.00,,,0.00,VWS V14.00,2013-01-30 13:25:00,
2013-01-30 15:28:00,56.4,32.4,29.93,WNW,292,2.6,2.6,40,0.00,,,0.00,VWS V14.00,2013-01-30 13:28:00,
2013-01-30 15:30:00,56.4,31.8,29.93,NNE,22,1.5,1.5,39,0.00,,,0.00,VWS V14.00,2013-01-30 13:30:00,
2013-01-30 15:33:00,56.4,31.8,29.93,NW,315,3.8,3.8,39,0.00,,,0.00,VWS V14.00,2013-01-30 13:33:00,
2013-01-30 15:35:00,56.8,31.5,29.93,West,270,4.9,4.9,38,0.00,,,0.00,VWS V14.00,2013-01-30 13:35:00,
2013-01-30 15:38:00,56.8,31.5,29.93,WNW,292,0.0,4.9,38,0.00,,,0.00,VWS V14.00,2013-01-30 13:38:00,
2013-01-30 15:40:00,56.8,30.8,29.93,WNW,292,6.4,6.4,37,0.00,,,0.00,VWS V14.00,2013-01-30 13:40:00,
2013-01-30 15:43:00,56.8,30.8,29.92,WNW,292,0.8,6.4,37,0.00,,,0.00,VWS V14.00,2013-01-30 13:43:00,
2013-01-30 15:45:00,56.8,30.8,29.92,West,270,5.8,5.8,37,0.00,,,0.00,VWS V14.00,2013-01-30 13:45:00,
2013-01-30 15:48:00,56.6,30.6,29.92,NW,315,1.3,5.8,37,0.00,,,0.00,VWS V14.00,2013-01-30 13:48:00,
2013-01-30 15:50:00,56.4,29.1,29.92,NW,315,0.0,0.0,35,0.00,,,0.00,VWS V14.00,2013-01-30 13:50:00,
2013-01-30 15:53:00,56.4,29.8,29.92,WNW,292,5.5,5.5,36,0.00,,,0.00,VWS V14.00,2013-01-30 13:53:00,
2013-01-30 15:55:00,56.4,29.1,29.91,ENE,68,0.0,0.0,35,0.00,,,0.00,VWS V14.00,2013-01-30 13:55:00,
2013-01-30 15:58:00,56.1,29.5,29.91,NNW,338,0.0,0.0,36,0.00,,,0.00,VWS V14.00,2013-01-30 13:58:00,
2013-01-30 16:00:00,55.9,30.7,29.92,NNW,338,2.2,2.2,38,0.00,,,0.00,VWS V14.00,2013-01-30 14:00:00,
2013-01-30 16:03:00,55.9,30.0,29.92,SW,225,3.8,3.8,37,0.00,,,0.00,VWS V14.00,2013-01-30 14:03:00,
2013-01-30 16:04:00,55.9,30.0,29.92,SW,225,3.8,3.8,37,0.00,,,0.00,VWS V14.00,2013-01-30 14:04:00,
2013-01-30 16:06:00,55.9,29.4,29.92,NNW,338,0.0,0.0,36,0.00,,,0.00,VWS V14.00,2013-01-30 14:06:00,
2013-01-30 16:08:00,55.9,28.7,29.92,SW,225,2.4,2.4,35,0.00,,,0.00,VWS V14.00,2013-01-30 14:08:00,
2013-01-30 16:09:00,55.9,28.7,29.92,SW,225,2.4,2.4,35,0.00,,,0.00,VWS V14.00,2013-01-30 14:09:00,
2013-01-30 16:11:00,55.9,28.7,29.92,ENE,68,0.0,0.0,35,0.00,,,0.00,VWS V14.00,2013-01-30 14:11:00,
2013-01-30 16:13:00,55.9,28.7,29.92,West,270,0.0,1.3,35,0.00,,,0.00,VWS V14.00,2013-01-30 14:13:00,
2013-01-30 16:14:00,55.9,28.7,29.92,West,270,0.0,1.3,35,0.00,,,0.00,VWS V14.00,2013-01-30 14:14:00,
2013-01-30 16:16:00,55.9,28.7,29.92,WNW,292,0.0,0.0,35,0.00,,,0.00,VWS V14.00,2013-01-30 14:16:00,
2013-01-30 16:18:00,55.9,28.7,29.92,West,270,2.0,2.0,35,0.00,,,0.00,VWS V14.00,2013-01-30 14:18:00,
2013-01-30 16:19:00,55.9,28.7,29.92,West,270,2.0,2.0,35,0.00,,,0.00,VWS V14.00,2013-01-30 14:19:00,
2013-01-30 16:21:00,55.9,29.4,29.92,NW,315,3.3,3.3,36,0.00,,,0.00,VWS V14.00,2013-01-30 14:21:00,
2013-01-30 16:23:00,55.9,28.7,29.91,WNW,292,2.2,3.3,35,0.00,,,0.00,VWS V14.00,2013-01-30 14:23:00,
2013-01-30 16:24:00,55.9,28.7,29.91,WNW,292,2.2,3.3,35,0.00,,,0.00,VWS V14.00,2013-01-30 14:24:00,
2013-01-30 16:26:00,56.1,28.8,29.91,NNW,338,6.0,6.0,35,0.00,,,0.00,VWS V14.00,2013-01-30 14:26:00,
2013-01-30 16:29:00,56.1,28.1,29.91,SSW,202,6.7,6.7,34,0.00,,,0.00,VWS V14.00,2013-01-30 14:29:00,
2013-01-30 16:31:00,56.1,28.1,29.91,West,270,1.3,1.3,34,0.00,,,0.00,VWS V14.00,2013-01-30 14:31:00,
2013-01-30 16:34:00,56.1,27.4,29.92,West,270,0.0,1.3,33,0.00,,,0.00,VWS V14.00,2013-01-30 14:34:00,
2013-01-30 16:36:00,55.9,27.2,29.92,NE,45,2.2,2.2,33,0.00,,,0.00,VWS V14.00,2013-01-30 14:36:00,
2013-01-30 16:39:00,55.9,27.2,29.92,NW,315,4.6,4.6,33,0.00,,,0.00,VWS V14.00,2013-01-30 14:39:00,
2013-01-30 16:41:00,55.9,27.2,29.92,NNW,338,3.8,3.8,33,0.00,,,0.00,VWS V14.00,2013-01-30 14:41:00,
2013-01-30 16:44:00,55.9,28.0,29.92,WNW,292,1.1,3.8,34,0.00,,,0.00,VWS V14.00,2013-01-30 14:44:00,
2013-01-30 16:46:00,55.9,28.0,29.92,NW,315,0.8,0.8,34,0.00,,,0.00,VWS V14.00,2013-01-30 14:46:00,
2013-01-30 16:49:00,55.9,28.7,29.92,NNW,338,0.0,0.8,35,0.00,,,0.00,VWS V14.00,2013-01-30 14:49:00,
2013-01-30 16:51:00,55.7,29.2,29.92,SW,225,2.4,2.4,36,0.00,,,0.00,VWS V14.00,2013-01-30 14:51:00,
2013-01-30 16:54:00,55.5,29.0,29.92,WNW,292,0.0,2.4,36,0.00,,,0.00,VWS V14.00,2013-01-30 14:54:00,
2013-01-30 16:56:00,55.5,29.0,29.92,ESE,112,0.0,0.8,36,0.00,,,0.00,VWS V14.00,2013-01-30 14:56:00,
2013-01-30 16:59:00,55.5,29.7,29.92,East,90,0.0,0.8,37,0.00,,,0.00,VWS V14.00,2013-01-30 14:59:00,
2013-01-30 17:01:00,55.4,30.2,29.92,West,270,0.0,0.0,38,0.00,,,0.00,VWS V14.00,2013-01-30 15:01:00,
2013-01-30 17:04:00,55.4,30.2,29.92,SW,225,3.1,3.1,38,0.00,,,0.00,VWS V14.00,2013-01-30 15:04:00,
2013-01-30 17:07:00,55.2,29.4,29.92,NNW,338,0.0,0.0,37,0.00,,,0.00,VWS V14.00,2013-01-30 15:07:00,
2013-01-30 17:09:00,55.2,28.7,29.91,West,270,2.2,2.2,36,0.00,,,0.00,VWS V14.00,2013-01-30 15:09:00,
2013-01-30 17:12:00,55.2,27.3,29.92,North,0,3.3,3.3,34,0.00,,,0.00,VWS V14.00,2013-01-30 15:12:00,
2013-01-30 17:14:00,55.2,27.3,29.91,NNW,338,2.2,3.3,34,0.00,,,0.00,VWS V14.00,2013-01-30 15:14:00,
2013-01-30 17:17:00,55.2,27.3,29.91,NW,315,1.3,1.3,34,0.00,,,0.00,VWS V14.00,2013-01-30 15:17:00,
2013-01-30 17:19:00,55.2,25.9,29.91,WNW,292,5.3,5.3,32,0.00,,,0.00,VWS V14.00,2013-01-30 15:19:00,
2013-01-30 17:22:00,55.2,25.9,29.91,WNW,292,5.3,5.3,32,0.00,,,0.00,VWS V14.00,2013-01-30 15:22:00,
2013-01-30 17:24:00,55.2,25.9,29.91,WNW,292,3.5,7.8,32,0.00,,,0.00,VWS V14.00,2013-01-30 15:24:00,
2013-01-30 17:27:00,55.2,26.6,29.91,NW,315,4.0,4.0,33,0.00,,,0.00,VWS V14.00,2013-01-30 15:27:00,
2013-01-30 17:29:00,55.2,27.3,29.92,North,0,2.4,4.0,34,0.00,,,0.00,VWS V14.00,2013-01-30 15:29:00,
2013-01-30 17:30:00,55.2,27.3,29.92,North,0,2.4,4.0,34,0.00,,,0.00,VWS V14.00,2013-01-30 15:30:00,
2013-01-30 17:32:00,55.2,27.3,29.92,NNW,338,2.4,2.4,34,0.00,,,0.00,VWS V14.00,2013-01-30 15:32:00,
2013-01-30 17:34:00,55.2,28.7,29.92,NNW,338,1.5,2.4,36,0.00,,,0.00,VWS V14.00,2013-01-30 15:34:00,
2013-01-30 17:35:00,55.2,28.7,29.92,NNW,338,1.5,2.4,36,0.00,,,0.00,VWS V14.00,2013-01-30 15:35:00,
2013-01-30 17:37:00,55.0,28.6,29.92,West,270,0.8,1.5,36,0.00,,,0.00,VWS V14.00,2013-01-30 15:37:00,
2013-01-30 17:39:00,54.8,28.4,29.92,WNW,292,0.0,1.5,36,0.00,,,0.00,VWS V14.00,2013-01-30 15:39:00,
2013-01-30 17:40:00,54.8,28.4,29.92,WNW,292,0.0,1.5,36,0.00,,,0.00,VWS V14.00,2013-01-30 15:40:00,
2013-01-30 17:42:00,54.8,28.4,29.92,NW,315,2.6,2.6,36,0.00,,,0.00,VWS V14.00,2013-01-30 15:42:00,
2013-01-30 17:44:00,54.6,28.9,29.92,WNW,292,0.8,2.6,37,0.00,,,0.00,VWS V14.00,2013-01-30 15:44:00,
2013-01-30 17:45:00,54.6,28.9,29.92,WNW,292,0.8,2.6,37,0.00,,,0.00,VWS V14.00,2013-01-30 15:45:00,
2013-01-30 17:47:00,54.6,28.9,29.93,WNW,292,0.0,0.0,37,0.00,,,0.00,VWS V14.00,2013-01-30 15:47:00,
2013-01-30 17:49:00,54.5,28.8,29.93,NW,315,2.2,2.2,37,0.00,,,0.00,VWS V14.00,2013-01-30 15:49:00,
2013-01-30 17:50:00,54.5,28.8,29.93,NW,315,2.2,2.2,37,0.00,,,0.00,VWS V14.00,2013-01-30 15:50:00,
2013-01-30 17:52:00,54.5,28.8,29.93,NW,315,2.2,2.2,37,0.00,,,0.00,VWS V14.00,2013-01-30 15:52:00,
2013-01-30 17:54:00,54.3,28.6,29.93,NNW,338,1.5,2.2,37,0.00,,,0.00,VWS V14.00,2013-01-30 15:54:00,
2013-01-30 17:55:00,54.3,28.6,29.93,NNW,338,1.5,2.2,37,0.00,,,0.00,VWS V14.00,2013-01-30 15:55:00,
2013-01-30 17:57:00,54.1,28.4,29.93,WNW,292,2.0,2.0,37,0.00,,,0.00,VWS V14.00,2013-01-30 15:57:00,
2013-01-30 17:59:00,54.1,28.4,29.93,NNW,338,0.6,2.0,37,0.00,,,0.00,VWS V14.00,2013-01-30 15:59:00,
2013-01-30 18:00:00,54.1,28.4,29.93,NNW,338,0.6,2.0,37,0.00,,,0.00,VWS V14.00,2013-01-30 16:00:00,
2013-01-30 18:02:00,54.1,28.4,29.93,NNW,338,0.0,0.0,37,0.00,,,0.00,VWS V14.00,2013-01-30 16:02:00,
2013-01-30 18:04:00,53.9,28.2,29.93,North,0,1.5,1.5,37,0.00,,,0.00,VWS V14.00,2013-01-30 16:04:00,
2013-01-30 18:05:00,53.9,28.2,29.93,North,0,1.5,1.5,37,0.00,,,0.00,VWS V14.00,2013-01-30 16:05:00,
2013-01-30 18:07:00,53.9,28.9,29.93,North,0,1.5,1.5,38,0.00,,,0.00,VWS V14.00,2013-01-30 16:07:00,
2013-01-30 18:09:00,53.7,28.7,29.94,NW,315,0.6,1.5,38,0.00,,,0.00,VWS V14.00,2013-01-30 16:09:00,
2013-01-30 18:10:00,53.7,28.7,29.94,NW,315,0.6,1.5,38,0.00,,,0.00,VWS V14.00,2013-01-30 16:10:00,
2013-01-30 18:12:00,53.7,28.7,29.93,NNE,22,0.0,0.6,38,0.00,,,0.00,VWS V14.00,2013-01-30 16:12:00,
2013-01-30 18:15:00,53.7,28.7,29.94,North,0,0.0,0.6,38,0.00,,,0.00,VWS V14.00,2013-01-30 16:15:00,
2013-01-30 18:17:00,53.6,28.6,29.94,WNW,292,0.0,0.0,38,0.00,,,0.00,VWS V14.00,2013-01-30 16:17:00,
2013-01-30 18:20:00,53.4,29.1,29.94,North,0,2.4,2.4,39,0.00,,,0.00,VWS V14.00,2013-01-30 16:20:00,
2013-01-30 18:22:00,53.4,29.1,29.94,NNW,338,2.2,2.4,39,0.00,,,0.00,VWS V14.00,2013-01-30 16:22:00,
2013-01-30 18:25:00,53.4,29.1,29.94,WNW,292,0.0,2.4,39,0.00,,,0.00,VWS V14.00,2013-01-30 16:25:00,
2013-01-30 18:27:00,53.2,28.9,29.94,SW,225,1.1,1.1,39,0.00,,,0.00,VWS V14.00,2013-01-30 16:27:00,
2013-01-30 18:30:00,53.2,28.9,29.94,NNW,338,2.2,2.2,39,0.00,,,0.00,VWS V14.00,2013-01-30 16:30:00,
2013-01-30 18:32:00,53.2,28.9,29.95,NNW,338,3.3,3.3,39,0.00,,,0.00,VWS V14.00,2013-01-30 16:32:00,
2013-01-30 18:35:00,53.2,29.5,29.94,East,90,5.1,5.1,40,0.00,,,0.00,VWS V14.00,2013-01-30 16:35:00,
2013-01-30 18:37:00,52.8,29.2,29.94,East,90,4.4,5.1,40,0.00,,,0.00,VWS V14.00,2013-01-30 16:37:00,
2013-01-30 18:40:00,52.8,29.2,29.94,ENE,68,2.0,5.1,40,0.00,,,0.00,VWS V14.00,2013-01-30 16:40:00,
2013-01-30 18:42:00,52.8,29.2,29.95,North,0,2.4,2.4,40,0.00,,,0.00,VWS V14.00,2013-01-30 16:42:00,
2013-01-30 18:45:00,52.8,29.2,29.95,NNE,22,4.4,4.4,40,0.00,,,0.00,VWS V14.00,2013-01-30 16:45:00,
2013-01-30 18:47:00,52.7,29.1,29.94,ENE,68,5.5,5.5,40,0.00,,,0.00,VWS V14.00,2013-01-30 16:47:00,
2013-01-30 18:50:00,52.7,28.5,29.94,NNE,22,3.1,5.5,39,0.00,,,0.00,VWS V14.00,2013-01-30 16:50:00,
2013-01-30 18:52:00,52.7,28.5,29.94,NNE,22,7.6,7.6,39,0.00,,,0.00,VWS V14.00,2013-01-30 16:52:00,
2013-01-30 18:55:00,52.7,28.5,29.94,North,0,4.9,7.6,39,0.00,,,0.00,VWS V14.00,2013-01-30 16:55:00,
2013-01-30 18:57:00,52.7,28.5,29.94,NNE,22,4.0,4.9,39,0.00,,,0.00,VWS V14.00,2013-01-30 16:57:00,
2013-01-30 19:00:00,52.7,28.5,29.94,North,0,6.7,6.7,39,0.00,,,0.00,VWS V14.00,2013-01-30 17:00:00,
2013-01-30 19:02:00,52.7,27.8,29.94,NNE,22,2.6,6.7,38,0.00,,,0.00,VWS V14.00,2013-01-30 17:02:00,
2013-01-30 19:05:00,52.7,27.8,29.94,NE,45,4.0,4.0,38,0.00,,,0.00,VWS V14.00,2013-01-30 17:05:00,
2013-01-30 19:07:00,52.7,27.8,29.94,North,0,8.5,8.5,38,0.00,,,0.00,VWS V14.00,2013-01-30 17:07:00,
2013-01-30 19:10:00,52.8,27.9,29.94,ENE,68,4.4,4.4,38,0.00,,,0.00,VWS V14.00,2013-01-30 17:10:00,
2013-01-30 19:12:00,52.8,27.9,29.94,NE,45,2.4,4.4,38,0.00,,,0.00,VWS V14.00,2013-01-30 17:12:00,
2013-01-30 19:15:00,52.8,27.9,29.94,NNW,338,6.0,6.0,38,0.00,,,0.00,VWS V14.00,2013-01-30 17:15:00,
2013-01-30 19:16:00,52.8,27.9,29.94,NNW,338,6.0,6.0,38,0.00,,,0.00,VWS V14.00,2013-01-30 17:16:00,
2013-01-30 19:17:00,52.8,27.9,29.94,North,0,1.7,6.0,38,0.00,,,0.00,VWS V14.00,2013-01-30 17:17:00,
2013-01-30 19:20:00,52.8,27.9,29.95,NE,45,7.8,7.8,38,0.00,,,0.00,VWS V14.00,2013-01-30 17:20:00,
2013-01-30 19:22:00,52.8,27.9,29.95,NNE,22,3.3,7.8,38,0.00,,,0.00,VWS V14.00,2013-01-30 17:22:00,
2013-01-30 19:25:00,52.8,27.3,29.95,North,0,3.1,3.1,37,0.00,,,0.00,VWS V14.00,2013-01-30 17:25:00,
2013-01-30 19:27:00,52.8,26.6,29.94,North,0,3.3,3.3,36,0.00,,,0.00,VWS V14.00,2013-01-30 17:27:00,
2013-01-30 19:30:00,52.8,26.6,29.94,NNE,22,4.6,4.6,36,0.00,,,0.00,VWS V14.00,2013-01-30 17:30:00,
2013-01-30 19:31:00,52.8,26.6,29.94,NNE,22,4.6,4.6,36,0.00,,,0.00,VWS V14.00,2013-01-30 17:31:00,
2013-01-30 19:33:00,52.8,26.6,29.94,NNE,22,4.4,4.6,36,0.00,,,0.00,VWS V14.00,2013-01-30 17:33:00,
2013-01-30 19:35:00,52.8,26.6,29.94,North,0,2.4,2.4,36,0.00,,,0.00,VWS V14.00,2013-01-30 17:35:00,
2013-01-30 19:36:00,52.8,26.6,29.94,North,0,2.4,2.4,36,0.00,,,0.00,VWS V14.00,2013-01-30 17:36:00,
2013-01-30 19:38:00,52.8,26.6,29.94,NNW,338,3.1,3.1,36,0.00,,,0.00,VWS V14.00,2013-01-30 17:38:00,
2013-01-30 19:40:00,52.8,26.6,29.94,NNW,338,4.2,4.2,36,0.00,,,0.00,VWS V14.00,2013-01-30 17:40:00,
2013-01-30 19:41:00,52.8,26.6,29.94,NNW,338,4.2,4.2,36,0.00,,,0.00,VWS V14.00,2013-01-30 17:41:00,
2013-01-30 19:43:00,52.8,26.6,29.94,North,0,5.3,5.3,36,0.00,,,0.00,VWS V14.00,2013-01-30 17:43:00,
2013-01-30 19:45:00,52.8,26.6,29.94,North,0,6.4,6.4,36,0.00,,,0.00,VWS V14.00,2013-01-30 17:45:00,
2013-01-30 19:46:00,52.8,26.6,29.94,North,0,6.4,6.4,36,0.00,,,0.00,VWS V14.00,2013-01-30 17:46:00,
2013-01-30 19:48:00,52.8,26.6,29.94,NNW,338,2.0,6.4,36,0.00,,,0.00,VWS V14.00,2013-01-30 17:48:00,
2013-01-30 19:50:00,52.8,26.6,29.94,NNE,22,2.0,2.0,36,0.00,,,0.00,VWS V14.00,2013-01-30 17:50:00,
2013-01-30 19:51:00,52.8,26.6,29.94,NNE,22,2.0,2.0,36,0.00,,,0.00,VWS V14.00,2013-01-30 17:51:00,
2013-01-30 19:53:00,52.8,26.6,29.94,NNE,22,5.8,5.8,36,0.00,,,0.00,VWS V14.00,2013-01-30 17:53:00,
2013-01-30 19:55:00,52.8,26.6,29.94,ENE,68,3.1,3.1,36,0.00,,,0.00,VWS V14.00,2013-01-30 17:55:00,
2013-01-30 19:56:00,52.8,26.6,29.94,ENE,68,3.1,3.1,36,0.00,,,0.00,VWS V14.00,2013-01-30 17:56:00,
2013-01-30 19:58:00,52.8,26.6,29.94,North,0,6.4,6.4,36,0.00,,,0.00,VWS V14.00,2013-01-30 17:58:00,
2013-01-30 20:00:00,52.8,25.9,29.94,NNW,338,6.0,6.0,35,0.00,,,0.00,VWS V14.00,2013-01-30 18:00:00,
2013-01-30 20:01:00,52.8,25.9,29.94,NNW,338,6.0,6.0,35,0.00,,,0.00,VWS V14.00,2013-01-30 18:01:00,
2013-01-30 20:03:00,52.8,26.6,29.94,North,0,4.0,6.0,36,0.00,,,0.00,VWS V14.00,2013-01-30 18:03:00,
2013-01-30 20:06:00,52.8,26.6,29.94,North,0,2.4,2.4,36,0.00,,,0.00,VWS V14.00,2013-01-30 18:06:00,
2013-01-30 20:08:00,52.8,26.6,29.94,NNW,338,2.4,4.4,36,0.00,,,0.00,VWS V14.00,2013-01-30 18:08:00,
2013-01-30 20:11:00,52.7,26.5,29.94,NNW,338,2.4,2.4,36,0.00,,,0.00,VWS V14.00,2013-01-30 18:11:00,
2013-01-30 20:13:00,52.7,26.5,29.95,NNW,338,7.8,7.8,36,0.00,,,0.00,VWS V14.00,2013-01-30 18:13:00,
2013-01-30 20:16:00,52.7,25.8,29.94,NNW,338,4.0,4.0,35,0.00,,,0.00,VWS V14.00,2013-01-30 18:16:00,
2013-01-30 20:18:00,52.8,25.9,29.94,NW,315,2.6,4.0,35,0.00,,,0.00,VWS V14.00,2013-01-30 18:18:00,
2013-01-30 20:21:00,52.8,25.9,29.94,North,0,3.5,3.5,35,0.00,,,0.00,VWS V14.00,2013-01-30 18:21:00,
2013-01-30 20:23:00,52.8,25.9,29.94,NNE,22,0.8,7.3,35,0.00,,,0.00,VWS V14.00,2013-01-30 18:23:00,
2013-01-30 20:26:00,52.8,25.9,29.94,NNE,22,0.8,0.8,35,0.00,,,0.00,VWS V14.00,2013-01-30 18:26:00,
2013-01-30 20:29:00,52.8,25.9,29.94,NNW,338,4.9,6.0,35,0.00,,,0.00,VWS V14.00,2013-01-30 18:29:00,
2013-01-30 20:31:00,52.8,25.9,29.94,NE,45,10.5,10.5,35,0.00,,,0.00,VWS V14.00,2013-01-30 18:31:00,
2013-01-30 20:34:00,52.8,25.9,29.94,North,0,14.3,14.3,35,0.00,,,0.00,VWS V14.00,2013-01-30 18:34:00,
2013-01-30 20:36:00,52.8,25.9,29.94,NE,45,5.5,5.5,35,0.00,,,0.00,VWS V14.00,2013-01-30 18:36:00,
2013-01-30 20:39:00,52.8,25.2,29.94,North,0,9.1,9.1,34,0.00,,,0.00,VWS V14.00,2013-01-30 18:39:00,
2013-01-30 20:41:00,52.8,25.9,29.94,North,0,5.5,9.1,35,0.00,,,0.00,VWS V14.00,2013-01-30 18:41:00,
2013-01-30 20:44:00,53.0,25.4,29.94,NNE,22,2.4,9.1,34,0.00,,,0.00,VWS V14.00,2013-01-30 18:44:00,
2013-01-30 20:46:00,53.0,26.1,29.94,North,0,6.9,6.9,35,0.00,,,0.00,VWS V14.00,2013-01-30 18:46:00,
2013-01-30 20:47:00,53.0,26.1,29.94,North,0,6.9,6.9,35,0.00,,,0.00,VWS V14.00,2013-01-30 18:47:00,
2013-01-30 20:49:00,53.2,26.3,29.94,North,0,4.6,6.9,35,0.00,,,0.00,VWS V14.00,2013-01-30 18:49:00,
2013-01-30 20:51:00,53.2,26.3,29.94,North,0,5.3,5.3,35,0.00,,,0.00,VWS V14.00,2013-01-30 18:51:00,
2013-01-30 20:52:00,53.2,26.3,29.94,North,0,5.3,5.3,35,0.00,,,0.00,VWS V14.00,2013-01-30 18:52:00,
2013-01-30 20:54:00,52.8,25.9,29.94,North,0,5.5,5.5,35,0.00,,,0.00,VWS V14.00,2013-01-30 18:54:00,
2013-01-30 20:56:00,53.0,26.1,29.94,North,0,3.5,3.5,35,0.00,,,0.00,VWS V14.00,2013-01-30 18:56:00,
2013-01-30 20:57:00,53.0,26.1,29.94,North,0,3.5,3.5,35,0.00,,,0.00,VWS V14.00,2013-01-30 18:57:00,
2013-01-30 20:59:00,52.8,25.9,29.94,NNW,338,2.4,3.5,35,0.00,,,0.00,VWS V14.00,2013-01-30 18:59:00,
2013-01-30 21:01:00,53.2,26.3,29.93,ENE,68,10.2,10.2,35,0.00,,,0.00,VWS V14.00,2013-01-30 19:01:00,
2013-01-30 21:02:00,53.2,26.3,29.93,ENE,68,10.2,10.2,35,0.00,,,0.00,VWS V14.00,2013-01-30 19:02:00,
2013-01-30 21:04:00,53.2,26.3,29.93,NE,45,2.4,10.2,35,0.00,,,0.00,VWS V14.00,2013-01-30 19:04:00,
2013-01-30 21:06:00,53.2,26.3,29.94,WNW,292,5.8,5.8,35,0.00,,,0.00,VWS V14.00,2013-01-30 19:06:00,
2013-01-30 21:07:00,53.2,26.3,29.94,WNW,292,5.8,5.8,35,0.00,,,0.00,VWS V14.00,2013-01-30 19:07:00,
2013-01-30 21:09:00,53.2,26.3,29.93,NNW,338,1.5,5.8,35,0.00,,,0.00,VWS V14.00,2013-01-30 19:09:00,
2013-01-30 21:11:00,53.2,26.3,29.94,WNW,292,3.1,3.1,35,0.00,,,0.00,VWS V14.00,2013-01-30 19:11:00,
2013-01-30 21:12:00,53.2,26.3,29.94,WNW,292,3.1,3.1,35,0.00,,,0.00,VWS V14.00,2013-01-30 19:12:00,
2013-01-30 21:14:00,53.2,26.3,29.94,North,0,0.8,3.1,35,0.00,,,0.00,VWS V14.00,2013-01-30 19:14:00,
2013-01-30 21:16:00,53.2,26.3,29.94,WNW,292,2.9,2.9,35,0.00,,,0.00,VWS V14.00,2013-01-30 19:16:00,
2013-01-30 21:17:00,53.2,26.3,29.94,WNW,292,2.9,2.9,35,0.00,,,0.00,VWS V14.00,2013-01-30 19:17:00,
2013-01-30 21:19:00,53.2,26.3,29.95,North,0,0.8,3.5,35,0.00,,,0.00,VWS V14.00,2013-01-30 19:19:00,
2013-01-30 21:21:00,53.2,27.0,29.94,NNW,338,2.6,2.6,36,0.00,,,0.00,VWS V14.00,2013-01-30 19:21:00,
2013-01-30 21:22:00,53.2,27.0,29.94,NNW,338,2.6,2.6,36,0.00,,,0.00,VWS V14.00,2013-01-30 19:22:00,
2013-01-30 21:24:00,52.8,27.3,29.94,North,0,4.0,4.0,37,0.00,,,0.00,VWS V14.00,2013-01-30 19:24:00,
2013-01-30 21:26:00,52.8,26.6,29.95,SE,135,0.0,4.0,36,0.00,,,0.00,VWS V14.00,2013-01-30 19:26:00,
2013-01-30 21:27:00,52.8,26.6,29.95,SE,135,0.0,4.0,36,0.00,,,0.00,VWS V14.00,2013-01-30 19:27:00,
2013-01-30 21:29:00,52.7,27.2,29.94,NW,315,0.8,4.0,37,0.00,,,0.00,VWS V14.00,2013-01-30 19:29:00,
2013-01-30 21:32:00,52.5,27.6,29.95,North,0,0.0,0.0,38,0.00,,,0.00,VWS V14.00,2013-01-30 19:32:00,
2013-01-30 21:34:00,52.3,27.5,29.95,North,0,2.6,2.6,38,0.00,,,0.00,VWS V14.00,2013-01-30 19:34:00,
2013-01-30 21:37:00,52.3,27.5,29.94,NE,45,0.0,2.6,38,0.00,,,0.00,VWS V14.00,2013-01-30 19:37:00,
2013-01-30 21:38:00,52.3,27.5,29.94,NE,45,0.0,2.6,38,0.00,,,0.00,VWS V14.00,2013-01-30 19:38:00,
2013-01-30 21:39:00,51.9,27.7,29.94,WNW,292,1.3,2.6,39,0.00,,,0.00,VWS V14.00,2013-01-30 19:39:00,
2013-01-30 21:42:00,51.9,27.7,29.95,North,0,0.6,0.6,39,0.00,,,0.00,VWS V14.00,2013-01-30 19:42:00,
2013-01-30 21:43:00,51.9,27.7,29.95,North,0,0.6,0.6,39,0.00,,,0.00,VWS V14.00,2013-01-30 19:43:00,
2013-01-30 21:45:00,51.8,27.6,29.95,ENE,68,0.0,0.6,39,0.00,,,0.00,VWS V14.00,2013-01-30 19:45:00,
2013-01-30 21:47:00,51.6,27.5,29.95,NE,45,0.0,0.0,39,0.00,,,0.00,VWS V14.00,2013-01-30 19:47:00,
2013-01-30 21:48:00,51.6,28.1,29.95,NNE,22,0.0,0.0,40,0.00,,,0.00,VWS V14.00,2013-01-30 19:48:00,
2013-01-30 21:50:00,51.4,27.9,29.95,North,0,3.5,3.5,40,0.00,,,0.00,VWS V14.00,2013-01-30 19:50:00,
2013-01-30 21:52:00,51.4,27.9,29.95,NNW,338,4.0,4.0,40,0.00,,,0.00,VWS V14.00,2013-01-30 19:52:00,
2013-01-30 21:53:00,51.4,27.9,29.95,NNW,338,4.0,4.0,40,0.00,,,0.00,VWS V14.00,2013-01-30 19:53:00,
2013-01-30 21:55:00,51.4,27.9,29.95,NW,315,2.9,4.0,40,0.00,,,0.00,VWS V14.00,2013-01-30 19:55:00,
2013-01-30 21:57:00,51.2,27.7,29.95,North,0,1.3,2.9,40,0.00,,,0.00,VWS V14.00,2013-01-30 19:57:00,
2013-01-30 21:58:00,51.0,28.1,29.95,NNW,338,1.5,2.9,41,0.00,,,0.00,VWS V14.00,2013-01-30 19:58:00,
2013-01-30 22:00:00,51.0,28.1,29.95,NNW,338,1.5,2.9,41,0.00,,,0.00,VWS V14.00,2013-01-30 20:00:00,
2013-01-30 22:02:00,50.9,28.1,29.94,NNW,338,0.0,0.0,41,0.00,,,0.00,VWS V14.00,2013-01-30 20:02:00,
2013-01-30 22:03:00,50.9,28.1,29.94,NNW,338,0.0,0.0,41,0.00,,,0.00,VWS V14.00,2013-01-30 20:03:00,
2013-01-30 22:05:00,50.9,28.1,29.95,NW,315,2.0,2.0,41,0.00,,,0.00,VWS V14.00,2013-01-30 20:05:00,
2013-01-30 22:07:00,50.9,28.1,29.95,WNW,292,0.0,2.0,41,0.00,,,0.00,VWS V14.00,2013-01-30 20:07:00,
2013-01-30 22:08:00,50.9,28.1,29.95,WNW,292,0.0,2.0,41,0.00,,,0.00,VWS V14.00,2013-01-30 20:08:00,
2013-01-30 22:10:00,50.7,28.5,29.95,NNW,338,1.3,1.3,42,0.00,,,0.00,VWS V14.00,2013-01-30 20:10:00,
2013-01-30 22:12:00,50.7,28.5,29.95,NNW,338,1.3,1.3,42,0.00,,,0.00,VWS V14.00,2013-01-30 20:12:00,
2013-01-30 22:13:00,50.7,28.5,29.95,NNW,338,1.3,1.3,42,0.00,,,0.00,VWS V14.00,2013-01-30 20:13:00,
2013-01-30 22:16:00,50.7,28.5,29.95,NE,45,0.0,0.0,42,0.00,,,0.00,VWS V14.00,2013-01-30 20:16:00,
2013-01-30 22:17:00,50.7,28.5,29.95,NNE,22,1.7,1.7,42,0.00,,,0.00,VWS V14.00,2013-01-30 20:17:00,
2013-01-30 22:18:00,50.7,28.5,29.95,NNE,22,1.7,1.7,42,0.00,,,0.00,VWS V14.00,2013-01-30 20:18:00,
2013-01-30 22:21:00,50.7,28.5,29.95,NNE,22,3.5,3.5,42,0.00,,,0.00,VWS V14.00,2013-01-30 20:21:00,
2013-01-30 22:22:00,50.7,29.0,29.95,NNE,22,0.8,3.5,43,0.00,,,0.00,VWS V14.00,2013-01-30 20:22:00,
2013-01-30 22:23:00,50.7,29.0,29.95,NNE,22,0.8,3.5,43,0.00,,,0.00,VWS V14.00,2013-01-30 20:23:00,
2013-01-30 22:26:00,50.5,28.9,29.95,NE,45,2.0,2.0,43,0.00,,,0.00,VWS V14.00,2013-01-30 20:26:00,
2013-01-30 22:27:00,50.5,28.9,29.95,NE,45,2.0,2.0,43,0.00,,,0.00,VWS V14.00,2013-01-30 20:27:00,
2013-01-30 22:28:00,50.5,28.9,29.95,NE,45,2.0,2.0,43,0.00,,,0.00,VWS V14.00,2013-01-30 20:28:00,
2013-01-30 22:31:00,50.5,29.4,29.95,NW,315,3.5,3.5,44,0.00,,,0.00,VWS V14.00,2013-01-30 20:31:00,
2013-01-30 22:32:00,50.5,29.4,29.95,NNW,338,0.8,3.5,44,0.00,,,0.00,VWS V14.00,2013-01-30 20:32:00,
2013-01-30 22:33:00,50.5,29.4,29.95,NNW,338,0.8,3.5,44,0.00,,,0.00,VWS V14.00,2013-01-30 20:33:00,
2013-01-30 22:36:00,50.3,29.2,29.96,NW,315,1.1,1.1,44,0.00,,,0.00,VWS V14.00,2013-01-30 20:36:00,
2013-01-30 22:37:00,50.3,29.2,29.96,NW,315,1.1,1.1,44,0.00,,,0.00,VWS V14.00,2013-01-30 20:37:00,
2013-01-30 22:38:00,50.3,29.2,29.96,NE,45,0.0,1.1,44,0.00,,,0.00,VWS V14.00,2013-01-30 20:38:00,
2013-01-30 22:41:00,50.3,29.2,29.96,NNE,22,1.3,1.3,44,0.00,,,0.00,VWS V14.00,2013-01-30 20:41:00,
2013-01-30 22:42:00,50.3,29.2,29.95,WSW,248,0.0,1.3,44,0.00,,,0.00,VWS V14.00,2013-01-30 20:42:00,
2013-01-30 22:43:00,50.1,29.6,29.95,WSW,248,0.0,1.3,45,0.00,,,0.00,VWS V14.00,2013-01-30 20:43:00,
2013-01-30 22:46:00,50.1,29.6,29.95,SSW,202,0.0,0.0,45,0.00,,,0.00,VWS V14.00,2013-01-30 20:46:00,
2013-01-30 22:47:00,50.1,29.6,29.95,NNW,338,0.0,0.0,45,0.00,,,0.00,VWS V14.00,2013-01-30 20:47:00,
2013-01-30 22:48:00,50.1,29.6,29.95,NNW,338,0.0,0.0,45,0.00,,,0.00,VWS V14.00,2013-01-30 20:48:00,
2013-01-30 22:52:00,50.1,29.6,29.95,North,0,0.0,0.0,45,0.00,,,0.00,VWS V14.00,2013-01-30 20:52:00,
2013-01-30 22:53:00,50.1,29.6,29.95,ENE,68,1.7,1.7,45,0.00,,,0.00,VWS V14.00,2013-01-30 20:53:00,
2013-01-30 22:57:00,50.1,30.1,29.96,NNE,22,0.0,1.7,46,0.00,,,0.00,VWS V14.00,2013-01-30 20:57:00,
2013-01-30 22:58:00,50.1,30.1,29.95,ENE,68,0.0,1.7,46,0.00,,,0.00,VWS V14.00,2013-01-30 20:58:00,
2013-01-30 23:02:00,50.1,30.1,29.95,East,90,0.0,0.0,46,0.00,,,0.00,VWS V14.00,2013-01-30 21:02:00,
2013-01-30 23:03:00,50.1,30.1,29.95,ENE,68,0.8,0.8,46,0.00,,,0.00,VWS V14.00,2013-01-30 21:03:00,
2013-01-30 23:07:00,50.0,30.0,29.95,NE,45,0.8,1.5,46,0.00,,,0.00,VWS V14.00,2013-01-30 21:07:00,
2013-01-30 23:08:00,50.0,30.0,29.95,NE,45,0.8,1.5,46,0.00,,,0.00,VWS V14.00,2013-01-30 21:08:00,
2013-01-30 23:13:00,50.0,30.6,29.95,NW,315,0.8,0.8,47,0.00,,,0.00,VWS V14.00,2013-01-30 21:13:00,
2013-01-30 23:18:00,49.8,30.4,29.95,NE,45,1.1,2.2,47,0.00,,,0.00,VWS V14.00,2013-01-30 21:18:00,
2013-01-30 23:19:00,49.8,30.4,29.95,NE,45,1.1,2.2,47,0.00,,,0.00,VWS V14.00,2013-01-30 21:19:00,
2013-01-30 23:23:00,49.8,30.4,29.95,NE,45,1.7,1.7,47,0.00,,,0.00,VWS V14.00,2013-01-30 21:23:00,
2013-01-30 23:24:00,49.8,30.4,29.95,North,0,0.0,1.7,47,0.00,,,0.00,VWS V14.00,2013-01-30 21:24:00,
2013-01-30 23:28:00,49.8,30.9,29.95,NE,45,0.0,1.5,48,0.00,,,0.00,VWS V14.00,2013-01-30 21:28:00,
2013-01-30 23:29:00,49.8,30.9,29.95,NE,45,0.0,1.5,48,0.00,,,0.00,VWS V14.00,2013-01-30 21:29:00,
2013-01-30 23:33:00,49.8,30.9,29.95,NW,315,1.7,5.1,48,0.00,,,0.00,VWS V14.00,2013-01-30 21:33:00,
2013-01-30 23:34:00,49.8,30.9,29.95,NW,315,1.7,5.1,48,0.00,,,0.00,VWS V14.00,2013-01-30 21:34:00,
2013-01-30 23:38:00,49.8,30.9,29.95,ENE,68,0.0,0.0,48,0.00,,,0.00,VWS V14.00,2013-01-30 21:38:00,
2013-01-30 23:39:00,49.8,30.9,29.95,NNE,22,1.7,1.7,48,0.00,,,0.00,VWS V14.00,2013-01-30 21:39:00,
2013-01-30 23:43:00,49.8,30.9,29.95,North,0,2.2,2.2,48,0.00,,,0.00,VWS V14.00,2013-01-30 21:43:00,
2013-01-30 23:44:00,49.8,30.9,29.95,NNW,338,2.2,2.2,48,0.00,,,0.00,VWS V14.00,2013-01-30 21:44:00,
2013-01-30 23:48:00,49.8,30.9,29.95,NNE,22,0.0,4.0,48,0.00,,,0.00,VWS V14.00,2013-01-30 21:48:00,
2013-01-30 23:49:00,49.8,30.9,29.95,NNE,22,0.0,4.0,48,0.00,,,0.00,VWS V14.00,2013-01-30 21:49:00,
2013-01-30 23:53:00,49.8,30.9,29.95,North,0,0.0,3.8,48,0.00,,,0.00,VWS V14.00,2013-01-30 21:53:00,
2013-01-30 23:54:00,49.8,30.9,29.95,North,0,0.0,3.8,48,0.00,,,0.00,VWS V14.00,2013-01-30 21:54:00,
2013-01-30 23:58:00,49.8,31.4,29.95,North,0,0.0,0.8,49,0.00,,,0.00,VWS V14.00,2013-01-30 21:58:00,
2013-01-30 23:59:00,49.8,31.4,29.95,North,0,0.0,0.8,49,0.00,,,0.00,VWS V14.00,2013-01-30 21:59:00,